Wetterdaten: Freitag, 10.08.2018
Datum Zeit Temp. Aussen Temp. o. S. +5cm Feuchte Auss Luftdruck Regen Sonnenschein Regendauer Solar Windben Empfang
10.08.2018 00:00 17,4 C 15,6 C 16,1 C 84 % 1012,5 hPa 0,0 l/m 0 min 2 min 0 W/m 13,5 km/h (3 Bft) 97,87 %
10.08.2018 00:02 17,3 C 15,6 C 16,1 C 85 % 1012,5 hPa 0,0 l/m 0 min 2 min 0 W/m 20,3 km/h (4 Bft) 97,06 %
10.08.2018 00:04 17,2 C 15,6 C 16,1 C 85 % 1012,3 hPa 0,0 l/m 0 min 2 min 0 W/m 15,8 km/h (3 Bft) 95,74 %
10.08.2018 00:08 17,1 C 16,1 C 16,1 C 85 % 1012,4 hPa 0,0 l/m 0 min 4 min 0 W/m 13,5 km/h (3 Bft) 96,81 %
10.08.2018 00:10 17,0 C 16,1 C 16,1 C 85 % 1012,6 hPa 0,0 l/m 0 min 2 min 0 W/m 13,5 km/h (3 Bft) 97,87 %
10.08.2018 00:12 16,9 C 16,1 C 16,1 C 85 % 1012,6 hPa 0,0 l/m 0 min 2 min 0 W/m 11,3 km/h (2 Bft) 97,83 %
10.08.2018 00:14 16,9 C 16,1 C 16,1 C 85 % 1012,6 hPa 0,0 l/m 0 min 2 min 0 W/m 13,5 km/h (3 Bft) 97,87 %
10.08.2018 00:16 16,9 C 16,1 C 16,1 C 86 % 1013,0 hPa 0,0 l/m 0 min 2 min 0 W/m 11,3 km/h (2 Bft) 97,96 %
10.08.2018 00:18 16,8 C 16,1 C 16,1 C 86 % 1012,8 hPa 0,0 l/m 0 min 0 min 0 W/m 9,0 km/h (2 Bft) 97,87 %
10.08.2018 00:20 16,8 C 16,1 C 16,1 C 86 % 1012,9 hPa 0,0 l/m 0 min 0 min 0 W/m 6,8 km/h (2 Bft) 98,00 %
10.08.2018 00:22 16,8 C 15,6 C 16,1 C 86 % 1013,1 hPa 0,0 l/m 0 min 0 min 0 W/m 15,8 km/h (3 Bft) 97,87 %
10.08.2018 00:24 16,8 C 15,6 C 16,1 C 86 % 1013,1 hPa 0,0 l/m 0 min 2 min 0 W/m 13,5 km/h (3 Bft) 97,87 %
10.08.2018 00:26 16,8 C 15,6 C 16,1 C 87 % 1013,1 hPa 0,0 l/m 0 min 2 min 0 W/m 6,8 km/h (2 Bft) 97,87 %
10.08.2018 00:28 16,7 C 15,6 C 15,6 C 87 % 1013,2 hPa 0,0 l/m 0 min 2 min 0 W/m 18,0 km/h (3 Bft) 97,67 %
10.08.2018 00:30 16,7 C 15,6 C 15,6 C 87 % 1013,2 hPa 0,0 l/m 0 min 2 min 0 W/m 6,8 km/h (2 Bft) 98,00 %
10.08.2018 00:32 16,7 C 15,6 C 15,6 C 87 % 1013,3 hPa 0,0 l/m 0 min 2 min 0 W/m 9,0 km/h (2 Bft) 97,87 %
10.08.2018 00:34 16,6 C 15,6 C 15,6 C 87 % 1013,1 hPa 0,0 l/m 0 min 2 min 0 W/m 11,3 km/h (2 Bft) 97,83 %
10.08.2018 00:36 16,6 C 15,6 C 15,6 C 87 % 1013,3 hPa 0,0 l/m 0 min 2 min 0 W/m 18,0 km/h (3 Bft) 97,87 %
10.08.2018 00:38 16,5 C 15,6 C 15,6 C 87 % 1013,4 hPa 0,0 l/m 0 min 2 min 0 W/m 20,3 km/h (4 Bft) 97,87 %
10.08.2018 00:40 16,5 C 15,0 C 15,6 C 87 % 1013,3 hPa 0,0 l/m 0 min 2 min 0 W/m 15,8 km/h (3 Bft) 97,87 %
10.08.2018 00:42 16,4 C 15,0 C 15,6 C 87 % 1013,4 hPa 0,0 l/m 0 min 2 min 0 W/m 9,0 km/h (2 Bft) 97,87 %
10.08.2018 00:44 16,4 C 15,0 C 15,6 C 88 % 1013,4 hPa 0,0 l/m 0 min 2 min 0 W/m 4,5 km/h (1 Bft) 97,87 %
10.08.2018 00:46 16,4 C 15,0 C 15,6 C 88 % 1013,4 hPa 0,0 l/m 0 min 2 min 0 W/m 9,0 km/h (2 Bft) 95,45 %
10.08.2018 00:48 16,4 C 15,0 C 15,6 C 88 % 1013,5 hPa 0,0 l/m 0 min 2 min 0 W/m 6,8 km/h (2 Bft) 97,96 %
10.08.2018 00:50 16,3 C 15,0 C 15,6 C 88 % 1013,5 hPa 0,0 l/m 0 min 2 min 0 W/m 6,8 km/h (2 Bft) 95,83 %
10.08.2018 00:52 16,3 C 15,0 C 15,6 C 88 % 1013,5 hPa 0,0 l/m 0 min 2 min 0 W/m 9,0 km/h (2 Bft) 97,83 %
10.08.2018 00:54 16,3 C 15,6 C 15,6 C 88 % 1013,7 hPa 0,0 l/m 0 min 2 min 0 W/m 6,8 km/h (2 Bft) 97,87 %
10.08.2018 00:56 16,2 C 15,6 C 15,6 C 88 % 1013,7 hPa 0,0 l/m 0 min 2 min 0 W/m 11,3 km/h (2 Bft) 97,87 %
10.08.2018 00:58 16,2 C 15,6 C 15,6 C 88 % 1013,8 hPa 0,0 l/m 0 min 2 min 0 W/m 11,3 km/h (2 Bft) 97,87 %
10.08.2018 01:00 16,2 C 15,6 C 15,6 C 89 % 1013,9 hPa 0,0 l/m 0 min 2 min 0 W/m 11,3 km/h (2 Bft) 95,74 %
10.08.2018 01:02 16,1 C 15,6 C 15,6 C 89 % 1013,8 hPa 0,0 l/m 0 min 0 min 0 W/m 11,3 km/h (2 Bft) 97,92 %
10.08.2018 01:04 16,1 C 15,6 C 15,6 C 88 % 1013,9 hPa 0,0 l/m 0 min 0 min 0 W/m 9,0 km/h (2 Bft) 97,83 %
10.08.2018 01:06 16,1 C 15,6 C 15,6 C 88 % 1013,9 hPa 0,0 l/m 0 min 0 min 0 W/m 9,0 km/h (2 Bft) 97,14 %
10.08.2018 01:08 16,1 C 15,6 C 15,6 C 88 % 1014,0 hPa 0,0 l/m 0 min 0 min 0 W/m 6,8 km/h (2 Bft) 97,87 %
10.08.2018 01:10 16,0 C 15,6 C 15,6 C 88 % 1014,1 hPa 0,0 l/m 0 min 0 min 0 W/m 13,5 km/h (3 Bft) 98,15 %
10.08.2018 01:12 16,0 C 15,6 C 15,6 C 88 % 1014,0 hPa 0,0 l/m 0 min 0 min 0 W/m 9,0 km/h (2 Bft) 100,00 %
10.08.2018 01:14 16,0 C 15,6 C 15,6 C 87 % 1014,1 hPa 0,0 l/m 0 min 0 min 0 W/m 9,0 km/h (2 Bft) 100,00 %
10.08.2018 01:16 16,0 C 15,6 C 15,6 C 87 % 1014,2 hPa 0,0 l/m 0 min 0 min 0 W/m 9,0 km/h (2 Bft) 100,00 %
10.08.2018 01:18 16,0 C 15,6 C 15,6 C 87 % 1014,2 hPa 0,0 l/m 0 min 0 min 0 W/m 11,3 km/h (2 Bft) 100,00 %
10.08.2018 01:20 16,0 C 15,6 C 15,6 C 87 % 1014,2 hPa 0,0 l/m 0 min 0 min 0 W/m 11,3 km/h (2 Bft) 98,00 %
10.08.2018 01:22 16,0 C 15,6 C 15,6 C 87 % 1014,4 hPa 0,0 l/m 0 min 0 min 0 W/m 13,5 km/h (3 Bft) 100,00 %
10.08.2018 01:24 16,0 C 15,6 C 15,6 C 87 % 1014,4 hPa 0,0 l/m 0 min 0 min 0 W/m 11,3 km/h (2 Bft) 100,00 %
10.08.2018 01:26 16,0 C 15,6 C 15,6 C 87 % 1014,4 hPa 0,0 l/m 0 min 0 min 0 W/m 6,8 km/h (2 Bft) 100,00 %
10.08.2018 01:28 16,0 C 15,6 C 15,6 C 87 % 1014,4 hPa 0,0 l/m 0 min 0 min 0 W/m 11,3 km/h (2 Bft) 100,00 %
10.08.2018 01:30 16,0 C 15,6 C 15,6 C 87 % 1014,4 hPa 0,0 l/m 0 min 0 min 0 W/m 11,3 km/h (2 Bft) 100,00 %
10.08.2018 01:32 16,0 C 15,6 C 15,6 C 86 % 1014,4 hPa 0,0 l/m 0 min 0 min 0 W/m 15,8 km/h (3 Bft) 100,00 %
10.08.2018 01:34 16,0 C 15,6 C 15,6 C 86 % 1014,5 hPa 0,0 l/m 0 min 0 min 0 W/m 6,8 km/h (2 Bft) 100,00 %
10.08.2018 01:36 16,0 C 15,6 C 15,6 C 86 % 1014,5 hPa 0,0 l/m 0 min 0 min 0 W/m 6,8 km/h (2 Bft) 100,00 %
10.08.2018 01:38 16,0 C 15,6 C 15,6 C 86 % 1014,6 hPa 0,0 l/m 0 min 0 min 0 W/m 11,3 km/h (2 Bft) 97,87 %
10.08.2018 01:40 16,0 C 15,6 C 15,6 C 86 % 1014,6 hPa 0,0 l/m 0 min 0 min 0 W/m 6,8 km/h (2 Bft) 100,00 %
10.08.2018 01:42 16,1 C 15,6 C 15,6 C 86 % 1014,6 hPa 0,0 l/m 0 min 0 min 0 W/m 6,8 km/h (2 Bft) 100,00 %
10.08.2018 01:44 16,0 C 15,6 C 15,6 C 86 % 1014,6 hPa 0,0 l/m 0 min 0 min 0 W/m 11,3 km/h (2 Bft) 100,00 %
10.08.2018 01:46 16,1 C 15,6 C 15,6 C 86 % 1014,7 hPa 0,0 l/m 0 min 0 min 0 W/m 2,3 km/h (1 Bft) 100,00 %
10.08.2018 01:48 16,1 C 15,6 C 15,6 C 86 % 1014,7 hPa 0,0 l/m 0 min 0 min 0 W/m 4,5 km/h (1 Bft) 93,62 %
10.08.2018 01:50 16,1 C 15,6 C 15,6 C 86 % 1014,7 hPa 0,0 l/m 0 min 0 min 0 W/m 6,8 km/h (2 Bft) 97,96 %
10.08.2018 01:52 16,1 C 15,6 C 15,6 C 86 % 1014,8 hPa 0,0 l/m 0 min 0 min 0 W/m 11,3 km/h (2 Bft) 95,74 %
10.08.2018 01:54 16,1 C 15,6 C 15,6 C 86 % 1015,0 hPa 0,0 l/m 0 min 0 min 0 W/m 2,3 km/h (1 Bft) 97,87 %
10.08.2018 01:56 16,1 C 15,6 C 15,6 C 86 % 1015,0 hPa 0,0 l/m 0 min 0 min 0 W/m 6,8 km/h (2 Bft) 95,74 %
10.08.2018 01:58 16,1 C 15,6 C 15,6 C 86 % 1015,0 hPa 0,0 l/m 0 min 0 min 0 W/m 4,5 km/h (1 Bft) 97,87 %
10.08.2018 02:00 16,1 C 15,6 C 15,6 C 86 % 1015,0 hPa 0,0 l/m 0 min 0 min 0 W/m 6,8 km/h (2 Bft) 97,87 %
10.08.2018 02:02 16,0 C 15,6 C 15,6 C 86 % 1015,0 hPa 0,0 l/m 0 min 0 min 0 W/m 11,3 km/h (2 Bft) 95,12 %
10.08.2018 02:04 16,0 C 15,6 C 15,6 C 86 % 1015,1 hPa 0,0 l/m 0 min 0 min 0 W/m 4,5 km/h (1 Bft) 97,87 %
10.08.2018 02:06 16,0 C 15,6 C 15,6 C 86 % 1015,1 hPa 0,0 l/m 0 min 0 min 0 W/m 4,5 km/h (1 Bft) 94,00 %
10.08.2018 02:08 16,0 C 15,6 C 15,6 C 86 % 1015,2 hPa 0,0 l/m 0 min 0 min 0 W/m 15,8 km/h (3 Bft) 97,96 %
10.08.2018 02:10 16,0 C 15,6 C 15,6 C 85 % 1015,2 hPa 0,0 l/m 0 min 0 min 0 W/m 9,0 km/h (2 Bft) 97,87 %
10.08.2018 02:12 16,0 C 15,6 C 15,6 C 85 % 1015,3 hPa 0,0 l/m 0 min 0 min 0 W/m 6,8 km/h (2 Bft) 97,83 %
10.08.2018 02:14 16,0 C 15,6 C 15,6 C 85 % 1015,4 hPa 0,0 l/m 0 min 0 min 0 W/m 6,8 km/h (2 Bft) 97,87 %
10.08.2018 02:16 16,0 C 15,6 C 15,6 C 85 % 1015,4 hPa 0,0 l/m 0 min 0 min 0 W/m 4,5 km/h (1 Bft) 97,87 %
10.08.2018 02:18 16,0 C 15,6 C 15,6 C 85 % 1015,5 hPa 0,0 l/m 0 min 0 min 0 W/m 9,0 km/h (2 Bft) 95,24 %
10.08.2018 02:20 16,0 C 15,6 C 15,6 C 85 % 1015,5 hPa 0,0 l/m 0 min 0 min 0 W/m 11,3 km/h (2 Bft) 97,96 %
10.08.2018 02:22 16,0 C 15,6 C 15,6 C 85 % 1015,5 hPa 0,0 l/m 0 min 0 min 0 W/m 6,8 km/h (2 Bft) 95,83 %
10.08.2018 02:24 15,9 C 15,6 C 15,6 C 85 % 1015,7 hPa 0,0 l/m 0 min 0 min 0 W/m 6,8 km/h (2 Bft) 97,87 %
10.08.2018 02:26 16,0 C 15,6 C 15,6 C 85 % 1015,7 hPa 0,0 l/m 0 min 0 min 0 W/m 4,5 km/h (1 Bft) 97,92 %
10.08.2018 02:28 16,0 C 15,6 C 15,0 C 85 % 1015,8 hPa 0,0 l/m 0 min 0 min 0 W/m 9,0 km/h (2 Bft) 97,14 %
10.08.2018 02:30 16,0 C 15,6 C 15,6 C 85 % 1015,8 hPa 0,0 l/m 0 min 0 min 0 W/m 2,3 km/h (1 Bft) 97,87 %
10.08.2018 02:32 15,9 C 15,6 C 15,6 C 85 % 1015,9 hPa 0,0 l/m 0 min 0 min 0 W/m 6,8 km/h (2 Bft) 98,18 %
10.08.2018 02:34 15,9 C 15,6 C 15,6 C 85 % 1015,9 hPa 0,0 l/m 0 min 0 min 0 W/m 9,0 km/h (2 Bft) 98,00 %
10.08.2018 02:38 15,9 C 15,6 C 15,6 C 85 % 1016,0 hPa 0,0 l/m 0 min 0 min 0 W/m 9,0 km/h (2 Bft) 97,87 %
10.08.2018 02:40 15,9 C 15,6 C 15,0 C 85 % 1016,0 hPa 0,0 l/m 0 min 0 min 0 W/m 6,8 km/h (2 Bft) 95,74 %
10.08.2018 02:42 15,9 C 15,6 C 15,0 C 85 % 1016,1 hPa 0,0 l/m 0 min 0 min 0 W/m 4,5 km/h (1 Bft) 95,74 %
10.08.2018 02:44 15,9 C 15,6 C 15,0 C 85 % 1016,0 hPa 0,0 l/m 0 min 0 min 0 W/m 4,5 km/h (1 Bft) 97,87 %
10.08.2018 02:46 15,9 C 15,0 C 15,0 C 85 % 1016,1 hPa 0,0 l/m 0 min 0 min 0 W/m 9,0 km/h (2 Bft) 97,14 %
10.08.2018 02:48 15,9 C 15,0 C 15,0 C 85 % 1016,1 hPa 0,0 l/m 0 min 0 min 0 W/m 11,3 km/h (2 Bft) 96,36 %
10.08.2018 02:50 15,9 C 15,0 C 15,0 C 85 % 1016,2 hPa 0,0 l/m 0 min 0 min 0 W/m 6,8 km/h (2 Bft) 98,00 %
10.08.2018 02:52 15,9 C 15,0 C 15,0 C 85 % 1016,2 hPa 0,0 l/m 0 min 0 min 0 W/m 4,5 km/h (1 Bft) 97,87 %
10.08.2018 02:54 15,9 C 15,0 C 15,0 C 85 % 1016,2 hPa 0,0 l/m 0 min 0 min 0 W/m 6,8 km/h (2 Bft) 95,65 %
10.08.2018 02:56 15,9 C 15,0 C 15,0 C 85 % 1016,3 hPa 0,0 l/m 0 min 0 min 0 W/m 4,5 km/h (1 Bft) 95,83 %
10.08.2018 02:58 15,9 C 15,0 C 15,0 C 85 % 1016,3 hPa 0,0 l/m 0 min 0 min 0 W/m 11,3 km/h (2 Bft) 97,87 %
10.08.2018 03:00 15,9 C 15,0 C 15,0 C 86 % 1016,3 hPa 0,0 l/m 0 min 0 min 0 W/m 9,0 km/h (2 Bft) 95,65 %
10.08.2018 03:02 15,9 C 15,0 C 15,0 C 86 % 1016,4 hPa 0,0 l/m 0 min 0 min 0 W/m 11,3 km/h (2 Bft) 93,62 %
10.08.2018 03:04 15,8 C 15,0 C 15,0 C 86 % 1016,4 hPa 0,0 l/m 0 min 0 min 0 W/m 4,5 km/h (1 Bft) 97,14 %
10.08.2018 03:06 15,8 C 15,0 C 15,0 C 86 % 1016,5 hPa 0,0 l/m 0 min 0 min 0 W/m 4,5 km/h (1 Bft) 98,21 %
10.08.2018 03:08 15,8 C 15,0 C 15,0 C 86 % 1016,5 hPa 0,0 l/m 0 min 0 min 0 W/m 6,8 km/h (2 Bft) 95,92 %
10.08.2018 03:10 15,8 C 15,0 C 15,0 C 86 % 1016,5 hPa 0,0 l/m 0 min 0 min 0 W/m 4,5 km/h (1 Bft) 95,83 %
10.08.2018 03:12 15,8 C 15,0 C 15,0 C 86 % 1016,5 hPa 0,0 l/m 0 min 0 min 0 W/m 6,8 km/h (2 Bft) 93,48 %
10.08.2018 03:14 15,8 C 15,0 C 15,0 C 86 % 1016,6 hPa 0,0 l/m 0 min 0 min 0 W/m 11,3 km/h (2 Bft) 94,29 %
10.08.2018 03:16 15,7 C 15,0 C 15,0 C 86 % 1016,6 hPa 0,0 l/m 0 min 0 min 0 W/m 4,5 km/h (1 Bft) 92,86 %
10.08.2018 03:18 15,7 C 15,0 C 15,0 C 86 % 1016,6 hPa 0,0 l/m 0 min 0 min 0 W/m 6,8 km/h (2 Bft) 93,88 %
10.08.2018 03:20 15,7 C 15,0 C 15,0 C 86 % 1016,7 hPa 0,0 l/m 0 min 0 min 0 W/m 9,0 km/h (2 Bft) 95,83 %
10.08.2018 03:22 15,7 C 15,0 C 15,0 C 86 % 1016,7 hPa 0,0 l/m 0 min 0 min 0 W/m 4,5 km/h (1 Bft) 95,74 %
10.08.2018 03:24 15,7 C 15,0 C 15,0 C 86 % 1016,7 hPa 0,0 l/m 0 min 0 min 0 W/m 6,8 km/h (2 Bft) 95,65 %
10.08.2018 03:26 15,6 C 14,4 C 15,0 C 86 % 1016,7 hPa 0,0 l/m 0 min 0 min 0 W/m 9,0 km/h (2 Bft) 97,14 %
10.08.2018 03:28 15,6 C 14,4 C 15,0 C 86 % 1016,7 hPa 0,0 l/m 0 min 0 min 0 W/m 2,3 km/h (1 Bft) 94,64 %
10.08.2018 03:30 15,6 C 14,4 C 15,0 C 86 % 1016,8 hPa 0,0 l/m 0 min 0 min 0 W/m 4,5 km/h (1 Bft) 95,65 %
10.08.2018 03:32 15,6 C 14,4 C 15,0 C 86 % 1016,8 hPa 0,0 l/m 0 min 0 min 0 W/m 2,3 km/h (1 Bft) 94,00 %
10.08.2018 03:34 15,6 C 14,4 C 15,0 C 86 % 1016,8 hPa 0,0 l/m 0 min 0 min 0 W/m 6,8 km/h (2 Bft) 93,62 %
10.08.2018 03:36 15,6 C 14,4 C 15,0 C 86 % 1016,8 hPa 0,0 l/m 0 min 0 min 0 W/m 6,8 km/h (2 Bft) 95,74 %
10.08.2018 03:38 15,5 C 14,4 C 15,0 C 86 % 1016,8 hPa 0,0 l/m 0 min 0 min 0 W/m 4,5 km/h (1 Bft) 95,83 %
10.08.2018 03:40 15,5 C 14,4 C 15,0 C 86 % 1016,8 hPa 0,0 l/m 0 min 0 min 0 W/m 6,8 km/h (2 Bft) 100,00 %
10.08.2018 03:42 15,4 C 14,4 C 15,0 C 86 % 1016,8 hPa 0,0 l/m 0 min 0 min 0 W/m 6,8 km/h (2 Bft) 94,44 %
10.08.2018 03:44 15,4 C 14,4 C 15,0 C 86 % 1016,9 hPa 0,0 l/m 0 min 0 min 0 W/m 6,8 km/h (2 Bft) 96,00 %
10.08.2018 03:46 15,4 C 14,4 C 15,0 C 86 % 1016,8 hPa 0,0 l/m 0 min 0 min 0 W/m 4,5 km/h (1 Bft) 97,92 %
10.08.2018 03:48 15,4 C 14,4 C 14,4 C 86 % 1016,9 hPa 0,0 l/m 0 min 0 min 0 W/m 2,3 km/h (1 Bft) 97,22 %
10.08.2018 03:50 15,4 C 14,4 C 15,0 C 86 % 1016,8 hPa 0,0 l/m 0 min 0 min 0 W/m 4,5 km/h (1 Bft) 98,15 %
10.08.2018 03:52 15,4 C 14,4 C 15,0 C 86 % 1016,9 hPa 0,0 l/m 0 min 0 min 0 W/m 4,5 km/h (1 Bft) 96,00 %
10.08.2018 03:54 15,3 C 14,4 C 14,4 C 86 % 1016,9 hPa 0,0 l/m 0 min 0 min 0 W/m 9,0 km/h (2 Bft) 97,83 %
10.08.2018 03:56 15,3 C 14,4 C 14,4 C 86 % 1016,9 hPa 0,0 l/m 0 min 0 min 0 W/m 6,8 km/h (2 Bft) 97,87 %
10.08.2018 03:58 15,3 C 14,4 C 14,4 C 86 % 1016,9 hPa 0,0 l/m 0 min 0 min 0 W/m 2,3 km/h (1 Bft) 97,92 %
10.08.2018 04:00 15,3 C 14,4 C 14,4 C 86 % 1016,9 hPa 0,0 l/m 0 min 0 min 0 W/m 6,8 km/h (2 Bft) 97,22 %
10.08.2018 04:02 15,2 C 14,4 C 14,4 C 86 % 1016,9 hPa 0,0 l/m 0 min 0 min 0 W/m 11,3 km/h (2 Bft) 100,00 %
10.08.2018 04:04 15,2 C 14,4 C 14,4 C 86 % 1017,0 hPa 0,0 l/m 0 min 0 min 0 W/m 2,3 km/h (1 Bft) 96,36 %
10.08.2018 04:06 15,2 C 13,9 C 14,4 C 86 % 1017,0 hPa 0,0 l/m 0 min 0 min 0 W/m 2,3 km/h (1 Bft) 100,00 %
10.08.2018 04:08 15,2 C 13,9 C 14,4 C 86 % 1017,0 hPa 0,0 l/m 0 min 0 min 0 W/m 6,8 km/h (2 Bft) 100,00 %
10.08.2018 04:10 15,2 C 13,9 C 14,4 C 86 % 1017,1 hPa 0,0 l/m 0 min 0 min 0 W/m 9,0 km/h (2 Bft) 97,83 %
10.08.2018 04:12 15,1 C 13,9 C 14,4 C 87 % 1017,1 hPa 0,0 l/m 0 min 0 min 0 W/m 4,5 km/h (1 Bft) 100,00 %
10.08.2018 04:14 15,1 C 13,9 C 14,4 C 87 % 1017,1 hPa 0,0 l/m 0 min 0 min 0 W/m 13,5 km/h (3 Bft) 100,00 %
10.08.2018 04:16 15,1 C 13,9 C 14,4 C 87 % 1017,2 hPa 0,0 l/m 0 min 0 min 0 W/m 4,5 km/h (1 Bft) 97,87 %
10.08.2018 04:18 15,0 C 13,9 C 14,4 C 87 % 1017,1 hPa 0,0 l/m 0 min 0 min 0 W/m 6,8 km/h (2 Bft) 100,00 %
10.08.2018 04:20 15,0 C 13,9 C 13,9 C 87 % 1017,1 hPa 0,0 l/m 0 min 0 min 0 W/m 9,0 km/h (2 Bft) 100,00 %
10.08.2018 04:22 14,9 C 13,9 C 13,9 C 87 % 1017,2 hPa 0,0 l/m 0 min 0 min 0 W/m 4,5 km/h (1 Bft) 100,00 %
10.08.2018 04:24 14,9 C 13,9 C 13,9 C 87 % 1017,1 hPa 0,0 l/m 0 min 0 min 0 W/m 2,3 km/h (1 Bft) 100,00 %
10.08.2018 04:26 14,9 C 13,9 C 13,9 C 87 % 1017,2 hPa 0,0 l/m 0 min 0 min 0 W/m 11,3 km/h (2 Bft) 100,00 %
10.08.2018 04:28 14,8 C 13,9 C 13,9 C 87 % 1017,3 hPa 0,0 l/m 0 min 0 min 0 W/m 6,8 km/h (2 Bft) 100,00 %
10.08.2018 04:30 14,8 C 13,9 C 13,9 C 87 % 1017,2 hPa 0,0 l/m 0 min 0 min 0 W/m 11,3 km/h (2 Bft) 100,00 %
10.08.2018 04:32 14,8 C 13,9 C 13,9 C 87 % 1017,2 hPa 0,0 l/m 0 min 0 min 0 W/m 9,0 km/h (2 Bft) 100,00 %
10.08.2018 04:34 14,8 C 13,9 C 13,9 C 88 % 1017,3 hPa 0,0 l/m 0 min 0 min 0 W/m 6,8 km/h (2 Bft) 100,00 %
10.08.2018 04:36 14,7 C 13,9 C 13,9 C 88 % 1017,3 hPa 0,0 l/m 0 min 0 min 0 W/m 6,8 km/h (2 Bft) 97,87 %
10.08.2018 04:38 14,7 C 13,9 C 13,9 C 88 % 1017,3 hPa 0,0 l/m 0 min 0 min 0 W/m 4,5 km/h (1 Bft) 100,00 %
10.08.2018 04:40 14,7 C 13,9 C 13,9 C 88 % 1017,3 hPa 0,0 l/m 0 min 0 min 0 W/m 2,3 km/h (1 Bft) 100,00 %
10.08.2018 04:42 14,7 C 13,9 C 13,9 C 88 % 1017,3 hPa 0,0 l/m 0 min 0 min 0 W/m 4,5 km/h (1 Bft) 96,00 %
10.08.2018 04:44 14,6 C 13,9 C 13,9 C 88 % 1017,3 hPa 0,0 l/m 0 min 0 min 0 W/m 4,5 km/h (1 Bft) 95,74 %
10.08.2018 04:46 14,6 C 13,3 C 13,9 C 88 % 1017,3 hPa 0,0 l/m 0 min 0 min 0 W/m 4,5 km/h (1 Bft) 97,87 %
10.08.2018 04:48 14,6 C 13,3 C 13,9 C 88 % 1017,3 hPa 0,0 l/m 0 min 0 min 0 W/m 4,5 km/h (1 Bft) 97,87 %
10.08.2018 04:50 14,6 C 13,3 C 13,9 C 88 % 1017,4 hPa 0,0 l/m 0 min 0 min 0 W/m 9,0 km/h (2 Bft) 97,87 %
10.08.2018 04:52 14,5 C 13,3 C 13,9 C 89 % 1017,3 hPa 0,0 l/m 0 min 0 min 0 W/m 2,3 km/h (1 Bft) 95,74 %
10.08.2018 04:54 14,5 C 13,3 C 13,9 C 89 % 1017,3 hPa 0,0 l/m 0 min 0 min 0 W/m 4,5 km/h (1 Bft) 97,87 %
10.08.2018 04:56 14,4 C 13,3 C 13,9 C 89 % 1017,3 hPa 0,0 l/m 0 min 0 min 0 W/m 2,3 km/h (1 Bft) 97,83 %
10.08.2018 04:58 14,4 C 13,3 C 13,9 C 89 % 1017,4 hPa 0,0 l/m 0 min 0 min 0 W/m 0,0 km/h (0 Bft) 97,22 %
10.08.2018 05:00 14,4 C 13,3 C 13,9 C 89 % 1017,4 hPa 0,0 l/m 0 min 0 min 0 W/m 0,0 km/h (0 Bft) 97,83 %
10.08.2018 05:02 14,4 C 13,3 C 13,9 C 89 % 1017,5 hPa 0,0 l/m 0 min 0 min 0 W/m 4,5 km/h (1 Bft) 96,30 %
10.08.2018 05:04 14,4 C 13,3 C 13,9 C 89 % 1017,4 hPa 0,0 l/m 0 min 0 min 0 W/m 4,5 km/h (1 Bft) 98,08 %
10.08.2018 05:06 14,3 C 13,3 C 13,9 C 89 % 1017,5 hPa 0,0 l/m 0 min 0 min 0 W/m 2,3 km/h (1 Bft) 97,14 %
10.08.2018 05:08 14,3 C 13,3 C 13,9 C 89 % 1017,6 hPa 0,0 l/m 0 min 0 min 0 W/m 4,5 km/h (1 Bft) 97,87 %
10.08.2018 05:10 14,3 C 13,3 C 13,9 C 89 % 1017,6 hPa 0,0 l/m 0 min 0 min 0 W/m 2,3 km/h (1 Bft) 97,87 %
10.08.2018 05:12 14,2 C 13,3 C 13,9 C 89 % 1017,6 hPa 0,0 l/m 0 min 0 min 0 W/m 6,8 km/h (2 Bft) 96,30 %
10.08.2018 05:14 14,2 C 13,3 C 13,9 C 89 % 1017,7 hPa 0,0 l/m 0 min 0 min 0 W/m 4,5 km/h (1 Bft) 98,00 %
10.08.2018 05:16 14,2 C 13,3 C 13,9 C 89 % 1017,6 hPa 0,0 l/m 0 min 0 min 0 W/m 2,3 km/h (1 Bft) 95,83 %
10.08.2018 05:18 14,2 C 13,3 C 13,9 C 89 % 1017,7 hPa 0,0 l/m 0 min 0 min 0 W/m 0,0 km/h (0 Bft) 100,00 %
10.08.2018 05:20 14,2 C 13,3 C 13,9 C 89 % 1017,6 hPa 0,0 l/m 0 min 0 min 0 W/m 2,3 km/h (1 Bft) 94,44 %
10.08.2018 05:22 14,2 C 13,3 C 13,9 C 90 % 1017,5 hPa 0,0 l/m 0 min 0 min 0 W/m 2,3 km/h (1 Bft) 96,08 %
10.08.2018 05:24 14,2 C 13,3 C 13,9 C 90 % 1017,6 hPa 0,0 l/m 0 min 0 min 0 W/m 2,3 km/h (1 Bft) 97,87 %
10.08.2018 05:26 14,2 C 13,3 C 13,9 C 90 % 1017,6 hPa 0,0 l/m 0 min 0 min 0 W/m 2,3 km/h (1 Bft) 97,87 %
10.08.2018 05:28 14,2 C 13,3 C 13,9 C 90 % 1017,6 hPa 0,0 l/m 0 min 0 min 0 W/m 4,5 km/h (1 Bft) 97,87 %
10.08.2018 05:30 14,2 C 13,3 C 13,9 C 90 % 1017,7 hPa 0,0 l/m 0 min 0 min 0 W/m 2,3 km/h (1 Bft) 94,29 %
10.08.2018 05:32 14,2 C 13,3 C 13,9 C 90 % 1017,7 hPa 0,0 l/m 0 min 0 min 0 W/m 2,3 km/h (1 Bft) 98,18 %
10.08.2018 05:34 14,2 C 13,3 C 13,9 C 90 % 1017,8 hPa 0,0 l/m 0 min 0 min 0 W/m 6,8 km/h (2 Bft) 100,00 %
10.08.2018 05:35 14,2 C 13,3 C 13,9 C 90 % 1017,8 hPa 0,0 l/m 0 min 0 min 0 W/m 6,8 km/h (2 Bft) 100,00 %
10.08.2018 05:40 14,2 C 13,3 C 13,9 C 90 % 1017,8 hPa 0,0 l/m 0 min 0 min 0 W/m 4,5 km/h (1 Bft) 91,67 %
10.08.2018 05:42 14,2 C 13,3 C 13,9 C 90 % 1017,8 hPa 0,0 l/m 0 min 0 min 0 W/m 6,8 km/h (2 Bft) 100,00 %
10.08.2018 05:47 14,1 C 13,3 C 13,9 C 90 % 1017,8 hPa 0,0 l/m 0 min 0 min 0 W/m 4,5 km/h (1 Bft) 89,47 %
10.08.2018 05:48 14,1 C 13,3 C 13,9 C 90 % 1017,8 hPa 0,0 l/m 0 min 0 min 0 W/m 2,3 km/h (1 Bft) 95,65 %
10.08.2018 05:50 14,1 C 13,3 C 13,3 C 90 % 1017,8 hPa 0,0 l/m 0 min 0 min 0 W/m 4,5 km/h (1 Bft) 100,00 %
10.08.2018 05:52 14,1 C 13,3 C 13,3 C 90 % 1017,8 hPa 0,0 l/m 0 min 0 min 0 W/m 6,8 km/h (2 Bft) 97,87 %
10.08.2018 05:54 14,1 C 13,3 C 13,9 C 90 % 1017,8 hPa 0,0 l/m 0 min 0 min 0 W/m 6,8 km/h (2 Bft) 97,87 %
10.08.2018 05:56 14,1 C 13,3 C 13,9 C 90 % 1017,9 hPa 0,0 l/m 0 min 0 min 0 W/m 4,5 km/h (1 Bft) 97,87 %
10.08.2018 05:58 14,1 C 13,3 C 13,3 C 90 % 1018,0 hPa 0,0 l/m 0 min 0 min 0 W/m 4,5 km/h (1 Bft) 100,00 %
10.08.2018 06:00 14,0 C 13,3 C 13,3 C 90 % 1018,0 hPa 0,0 l/m 0 min 0 min 0 W/m 4,5 km/h (1 Bft) 97,87 %
10.08.2018 06:02 14,0 C 13,3 C 13,3 C 90 % 1018,0 hPa 0,0 l/m 0 min 0 min 0 W/m 6,8 km/h (2 Bft) 97,96 %
10.08.2018 06:04 14,0 C 13,3 C 13,3 C 90 % 1017,9 hPa 0,0 l/m 0 min 0 min 0 W/m 6,8 km/h (2 Bft) 97,87 %
10.08.2018 06:08 14,0 C 13,3 C 13,3 C 90 % 1017,9 hPa 0,0 l/m 0 min 0 min 0 W/m 6,8 km/h (2 Bft) 96,77 %
10.08.2018 06:10 13,9 C 13,3 C 13,3 C 90 % 1018,0 hPa 0,0 l/m 0 min 0 min 0 W/m 2,3 km/h (1 Bft) 97,87 %
10.08.2018 06:12 13,9 C 13,3 C 13,3 C 90 % 1017,9 hPa 0,0 l/m 0 min 0 min 0 W/m 2,3 km/h (1 Bft) 97,87 %
10.08.2018 06:14 13,9 C 13,3 C 13,3 C 91 % 1018,0 hPa 0,0 l/m 0 min 0 min 2 W/m 4,5 km/h (1 Bft) 97,87 %
10.08.2018 06:16 13,9 C 13,3 C 13,3 C 91 % 1018,0 hPa 0,0 l/m 0 min 0 min 5 W/m 4,5 km/h (1 Bft) 97,87 %
10.08.2018 06:18 13,9 C 13,3 C 13,3 C 91 % 1018,1 hPa 0,0 l/m 0 min 0 min 5 W/m 6,8 km/h (2 Bft) 97,87 %
10.08.2018 06:20 13,9 C 13,3 C 13,3 C 91 % 1018,0 hPa 0,0 l/m 0 min 0 min 5 W/m 4,5 km/h (1 Bft) 97,83 %
10.08.2018 06:22 13,9 C 13,3 C 13,3 C 91 % 1018,1 hPa 0,0 l/m 0 min 0 min 6 W/m 2,3 km/h (1 Bft) 95,74 %
10.08.2018 06:24 13,9 C 13,3 C 13,3 C 91 % 1018,2 hPa 0,0 l/m 0 min 0 min 7 W/m 6,8 km/h (2 Bft) 97,87 %
10.08.2018 06:26 13,9 C 13,3 C 13,3 C 91 % 1018,1 hPa 0,0 l/m 0 min 0 min 8 W/m 4,5 km/h (1 Bft) 97,87 %
10.08.2018 06:28 13,9 C 13,3 C 13,3 C 91 % 1018,3 hPa 0,0 l/m 0 min 0 min 9 W/m 2,3 km/h (1 Bft) 97,87 %
10.08.2018 06:30 13,9 C 13,3 C 13,3 C 91 % 1018,2 hPa 0,0 l/m 0 min 0 min 11 W/m 2,3 km/h (1 Bft) 97,87 %
10.08.2018 06:32 13,9 C 13,3 C 13,3 C 91 % 1018,2 hPa 0,0 l/m 0 min 0 min 11 W/m 2,3 km/h (1 Bft) 95,74 %
10.08.2018 06:34 13,9 C 13,3 C 13,3 C 91 % 1018,3 hPa 0,0 l/m 0 min 0 min 12 W/m 4,5 km/h (1 Bft) 97,87 %
10.08.2018 06:36 13,9 C 13,3 C 13,3 C 91 % 1018,3 hPa 0,0 l/m 0 min 0 min 13 W/m 2,3 km/h (1 Bft) 98,00 %
10.08.2018 06:38 13,9 C 13,3 C 13,3 C 91 % 1018,5 hPa 0,0 l/m 0 min 0 min 14 W/m 4,5 km/h (1 Bft) 97,87 %
10.08.2018 06:43 13,9 C 13,3 C 13,3 C 91 % 1018,4 hPa 0,0 l/m 0 min 0 min 16 W/m 6,8 km/h (2 Bft) 96,08 %
10.08.2018 06:44 13,9 C 13,3 C 13,3 C 91 % 1018,4 hPa 0,0 l/m 0 min 0 min 18 W/m 0,0 km/h (0 Bft) 95,65 %
10.08.2018 06:46 13,9 C 13,3 C 13,3 C 91 % 1018,4 hPa 0,0 l/m 0 min 0 min 18 W/m 6,8 km/h (2 Bft) 95,74 %
10.08.2018 06:48 13,9 C 13,3 C 13,3 C 91 % 1018,4 hPa 0,0 l/m 0 min 0 min 19 W/m 4,5 km/h (1 Bft) 95,74 %
10.08.2018 06:50 13,9 C 13,3 C 13,3 C 91 % 1018,5 hPa 0,0 l/m 0 min 0 min 19 W/m 4,5 km/h (1 Bft) 95,74 %
10.08.2018 06:52 13,9 C 13,3 C 13,9 C 91 % 1018,6 hPa 0,0 l/m 0 min 0 min 20 W/m 6,8 km/h (2 Bft) 97,87 %
10.08.2018 06:54 13,9 C 13,3 C 13,9 C 91 % 1018,5 hPa 0,0 l/m 0 min 0 min 21 W/m 4,5 km/h (1 Bft) 97,92 %
10.08.2018 06:56 13,9 C 13,3 C 13,9 C 91 % 1018,6 hPa 0,0 l/m 0 min 0 min 21 W/m 6,8 km/h (2 Bft) 97,87 %
10.08.2018 06:58 13,9 C 13,3 C 13,9 C 91 % 1018,6 hPa 0,0 l/m 0 min 0 min 22 W/m 6,8 km/h (2 Bft) 97,87 %
10.08.2018 07:00 13,9 C 13,3 C 13,9 C 91 % 1018,6 hPa 0,0 l/m 0 min 0 min 23 W/m 2,3 km/h (1 Bft) 97,14 %
10.08.2018 07:02 13,9 C 13,3 C 13,9 C 91 % 1018,5 hPa 0,0 l/m 0 min 0 min 25 W/m 2,3 km/h (1 Bft) 98,00 %
10.08.2018 07:04 13,9 C 13,3 C 13,9 C 91 % 1018,5 hPa 0,0 l/m 0 min 0 min 25 W/m 0,0 km/h (0 Bft) 97,87 %
10.08.2018 07:06 13,9 C 13,3 C 13,3 C 91 % 1018,6 hPa 0,0 l/m 0 min 0 min 25 W/m 2,3 km/h (1 Bft) 97,87 %
10.08.2018 07:08 13,9 C 13,9 C 13,9 C 91 % 1018,6 hPa 0,0 l/m 0 min 0 min 26 W/m 6,8 km/h (2 Bft) 97,87 %
10.08.2018 07:10 13,9 C 13,9 C 13,9 C 91 % 1018,7 hPa 0,0 l/m 0 min 0 min 27 W/m 4,5 km/h (1 Bft) 97,87 %
10.08.2018 07:12 13,9 C 13,9 C 13,9 C 91 % 1018,7 hPa 0,0 l/m 0 min 0 min 28 W/m 2,3 km/h (1 Bft) 97,83 %
10.08.2018 07:14 13,9 C 13,9 C 13,9 C 91 % 1018,8 hPa 0,0 l/m 0 min 0 min 30 W/m 2,3 km/h (1 Bft) 95,74 %
10.08.2018 07:16 13,9 C 13,9 C 13,9 C 91 % 1018,8 hPa 0,0 l/m 0 min 0 min 31 W/m 4,5 km/h (1 Bft) 95,74 %
10.08.2018 07:18 13,9 C 13,9 C 13,9 C 91 % 1018,7 hPa 0,0 l/m 0 min 0 min 33 W/m 4,5 km/h (1 Bft) 97,87 %
10.08.2018 07:20 13,9 C 13,9 C 13,9 C 91 % 1018,7 hPa 0,0 l/m 0 min 0 min 34 W/m 6,8 km/h (2 Bft) 95,74 %
10.08.2018 07:22 14,0 C 13,9 C 13,9 C 91 % 1018,7 hPa 0,0 l/m 0 min 0 min 36 W/m 4,5 km/h (1 Bft) 97,87 %
10.08.2018 07:24 14,0 C 13,9 C 13,9 C 91 % 1018,7 hPa 0,0 l/m 0 min 0 min 38 W/m 2,3 km/h (1 Bft) 97,83 %
10.08.2018 07:26 14,0 C 13,9 C 13,9 C 91 % 1018,8 hPa 0,0 l/m 0 min 0 min 39 W/m 4,5 km/h (1 Bft) 97,87 %
10.08.2018 07:28 14,1 C 13,9 C 13,9 C 91 % 1018,9 hPa 0,0 l/m 0 min 0 min 39 W/m 2,3 km/h (1 Bft) 97,87 %
10.08.2018 07:30 14,1 C 13,9 C 13,9 C 91 % 1018,9 hPa 0,0 l/m 0 min 0 min 41 W/m 0,0 km/h (0 Bft) 97,87 %
10.08.2018 07:32 14,1 C 13,9 C 13,9 C 91 % 1018,9 hPa 0,0 l/m 0 min 0 min 42 W/m 2,3 km/h (1 Bft) 97,92 %
10.08.2018 07:34 14,1 C 13,9 C 13,9 C 91 % 1018,9 hPa 0,0 l/m 0 min 0 min 40 W/m 4,5 km/h (1 Bft) 97,83 %
10.08.2018 07:36 14,1 C 13,9 C 13,9 C 91 % 1018,9 hPa 0,0 l/m 0 min 0 min 40 W/m 4,5 km/h (1 Bft) 96,36 %
10.08.2018 07:38 14,2 C 13,9 C 13,9 C 91 % 1018,9 hPa 0,0 l/m 0 min 0 min 41 W/m 4,5 km/h (1 Bft) 97,87 %
10.08.2018 07:40 14,2 C 14,4 C 13,9 C 91 % 1018,9 hPa 0,0 l/m 0 min 0 min 43 W/m 2,3 km/h (1 Bft) 95,65 %
10.08.2018 07:42 14,2 C 14,4 C 13,9 C 91 % 1019,0 hPa 0,0 l/m 0 min 0 min 45 W/m 4,5 km/h (1 Bft) 95,74 %
10.08.2018 07:44 14,2 C 14,4 C 13,9 C 91 % 1019,0 hPa 0,0 l/m 0 min 0 min 48 W/m 4,5 km/h (1 Bft) 95,74 %
10.08.2018 07:46 14,2 C 14,4 C 13,9 C 91 % 1019,0 hPa 0,0 l/m 0 min 0 min 53 W/m 6,8 km/h (2 Bft) 95,74 %
10.08.2018 07:48 14,2 C 14,4 C 13,9 C 91 % 1018,9 hPa 0,0 l/m 0 min 0 min 54 W/m 6,8 km/h (2 Bft) 97,87 %
10.08.2018 07:50 14,2 C 14,4 C 13,9 C 91 % 1019,0 hPa 0,0 l/m 0 min 0 min 56 W/m 9,0 km/h (2 Bft) 95,74 %
10.08.2018 07:52 14,2 C 14,4 C 14,4 C 91 % 1019,0 hPa 0,0 l/m 0 min 0 min 52 W/m 4,5 km/h (1 Bft) 97,83 %
10.08.2018 07:54 14,2 C 14,4 C 14,4 C 91 % 1019,0 hPa 0,0 l/m 0 min 0 min 48 W/m 4,5 km/h (1 Bft) 95,74 %
10.08.2018 07:56 14,2 C 14,4 C 14,4 C 91 % 1019,0 hPa 0,0 l/m 0 min 0 min 46 W/m 2,3 km/h (1 Bft) 97,87 %
10.08.2018 07:58 14,3 C 14,4 C 14,4 C 91 % 1019,0 hPa 0,0 l/m 0 min 0 min 42 W/m 6,8 km/h (2 Bft) 97,87 %
10.08.2018 08:00 14,3 C 14,4 C 14,4 C 91 % 1019,0 hPa 0,0 l/m 0 min 0 min 40 W/m 6,8 km/h (2 Bft) 97,14 %
10.08.2018 08:02 14,3 C 14,4 C 14,4 C 91 % 1019,0 hPa 0,0 l/m 0 min 0 min 44 W/m 9,0 km/h (2 Bft) 98,04 %
10.08.2018 08:04 14,4 C 14,4 C 14,4 C 91 % 1019,0 hPa 0,0 l/m 0 min 0 min 47 W/m 15,8 km/h (3 Bft) 95,74 %
10.08.2018 08:06 14,4 C 14,4 C 14,4 C 91 % 1019,0 hPa 0,0 l/m 0 min 0 min 48 W/m 11,3 km/h (2 Bft) 95,74 %
10.08.2018 08:08 14,4 C 14,4 C 14,4 C 90 % 1018,9 hPa 0,0 l/m 0 min 0 min 49 W/m 4,5 km/h (1 Bft) 97,87 %
10.08.2018 08:10 14,5 C 15,0 C 14,4 C 90 % 1019,0 hPa 0,0 l/m 0 min 0 min 49 W/m 4,5 km/h (1 Bft) 95,65 %
10.08.2018 08:12 14,6 C 15,0 C 14,4 C 90 % 1019,0 hPa 0,0 l/m 0 min 0 min 50 W/m 6,8 km/h (2 Bft) 97,87 %
10.08.2018 08:14 14,6 C 15,0 C 14,4 C 90 % 1019,0 hPa 0,0 l/m 0 min 0 min 52 W/m 9,0 km/h (2 Bft) 97,87 %
10.08.2018 08:16 14,7 C 15,0 C 14,4 C 90 % 1019,1 hPa 0,0 l/m 0 min 0 min 53 W/m 6,8 km/h (2 Bft) 97,87 %
10.08.2018 08:18 14,7 C 15,0 C 14,4 C 90 % 1019,1 hPa 0,0 l/m 0 min 0 min 54 W/m 6,8 km/h (2 Bft) 97,87 %
10.08.2018 08:20 14,7 C 15,0 C 14,4 C 90 % 1019,1 hPa 0,0 l/m 0 min 0 min 54 W/m 6,8 km/h (2 Bft) 95,74 %
10.08.2018 08:22 14,8 C 15,0 C 15,0 C 90 % 1019,1 hPa 0,0 l/m 0 min 0 min 57 W/m 4,5 km/h (1 Bft) 97,83 %
10.08.2018 08:24 14,8 C 15,6 C 15,0 C 90 % 1019,1 hPa 0,0 l/m 0 min 0 min 61 W/m 9,0 km/h (2 Bft) 97,87 %
10.08.2018 08:26 14,9 C 15,6 C 15,0 C 90 % 1019,1 hPa 0,0 l/m 0 min 0 min 61 W/m 4,5 km/h (1 Bft) 97,87 %
10.08.2018 08:28 14,9 C 15,6 C 15,0 C 89 % 1019,1 hPa 0,0 l/m 0 min 0 min 63 W/m 9,0 km/h (2 Bft) 95,74 %
10.08.2018 08:30 15,0 C 15,6 C 15,0 C 90 % 1019,2 hPa 0,0 l/m 0 min 0 min 58 W/m 4,5 km/h (1 Bft) 100,00 %
10.08.2018 08:32 15,1 C 15,6 C 15,0 C 90 % 1019,1 hPa 0,0 l/m 0 min 0 min 59 W/m 4,5 km/h (1 Bft) 97,87 %
10.08.2018 08:34 15,1 C 15,6 C 15,0 C 89 % 1019,1 hPa 0,0 l/m 0 min 0 min 60 W/m 9,0 km/h (2 Bft) 97,83 %
10.08.2018 08:36 15,2 C 15,6 C 15,0 C 89 % 1019,2 hPa 0,0 l/m 0 min 0 min 63 W/m 11,3 km/h (2 Bft) 97,87 %
10.08.2018 08:38 15,2 C 15,6 C 15,0 C 89 % 1019,1 hPa 0,0 l/m 0 min 0 min 63 W/m 11,3 km/h (2 Bft) 93,62 %
10.08.2018 08:40 15,3 C 15,6 C 15,0 C 89 % 1019,3 hPa 0,0 l/m 0 min 0 min 62 W/m 13,5 km/h (3 Bft) 97,87 %
10.08.2018 08:42 15,3 C 15,6 C 15,0 C 88 % 1019,2 hPa 0,0 l/m 0 min 0 min 65 W/m 9,0 km/h (2 Bft) 97,87 %
10.08.2018 08:44 15,4 C 15,6 C 15,0 C 88 % 1019,3 hPa 0,0 l/m 0 min 0 min 63 W/m 9,0 km/h (2 Bft) 100,00 %
10.08.2018 08:46 15,4 C 16,1 C 15,0 C 87 % 1019,4 hPa 0,0 l/m 0 min 0 min 63 W/m 15,8 km/h (3 Bft) 97,83 %
10.08.2018 08:48 15,6 C 16,1 C 15,0 C 87 % 1019,2 hPa 0,0 l/m 0 min 0 min 65 W/m 11,3 km/h (2 Bft) 97,87 %
10.08.2018 08:50 15,6 C 16,1 C 15,6 C 87 % 1019,3 hPa 0,0 l/m 0 min 0 min 70 W/m 6,8 km/h (2 Bft) 97,87 %
10.08.2018 08:52 15,7 C 16,1 C 15,6 C 87 % 1019,4 hPa 0,0 l/m 0 min 0 min 77 W/m 6,8 km/h (2 Bft) 97,87 %
10.08.2018 08:54 15,7 C 16,7 C 15,6 C 87 % 1019,4 hPa 0,0 l/m 0 min 0 min 84 W/m 13,5 km/h (3 Bft) 97,87 %
10.08.2018 08:56 15,8 C 16,7 C 15,6 C 87 % 1019,4 hPa 0,0 l/m 0 min 0 min 105 W/m 13,5 km/h (3 Bft) 97,87 %
10.08.2018 08:58 15,8 C 16,7 C 15,6 C 86 % 1019,4 hPa 0,0 l/m 0 min 0 min 95 W/m 11,3 km/h (2 Bft) 97,83 %
10.08.2018 09:00 15,9 C 16,7 C 15,6 C 86 % 1019,5 hPa 0,0 l/m 0 min 0 min 97 W/m 11,3 km/h (2 Bft) 97,87 %
10.08.2018 09:02 16,0 C 16,7 C 15,6 C 86 % 1019,4 hPa 0,0 l/m 0 min 0 min 182 W/m 9,0 km/h (2 Bft) 97,87 %
10.08.2018 09:04 16,1 C 16,7 C 15,6 C 86 % 1019,4 hPa 0,0 l/m 2 min 0 min 330 W/m 9,0 km/h (2 Bft) 97,87 %
10.08.2018 09:06 16,1 C 17,2 C 15,6 C 86 % 1019,4 hPa 0,0 l/m 2 min 0 min 372 W/m 6,8 km/h (2 Bft) 96,23 %
10.08.2018 09:08 16,2 C 17,2 C 16,1 C 86 % 1019,5 hPa 0,0 l/m 2 min 0 min 371 W/m 15,8 km/h (3 Bft) 97,87 %
10.08.2018 09:10 16,3 C 17,8 C 16,1 C 85 % 1019,5 hPa 0,0 l/m 2 min 0 min 370 W/m 9,0 km/h (2 Bft) 95,74 %
10.08.2018 09:12 16,4 C 17,8 C 16,1 C 85 % 1019,3 hPa 0,0 l/m 2 min 0 min 377 W/m 6,8 km/h (2 Bft) 95,74 %
10.08.2018 09:14 16,4 C 18,3 C 16,1 C 85 % 1019,3 hPa 0,0 l/m 2 min 0 min 389 W/m 9,0 km/h (2 Bft) 97,83 %
10.08.2018 09:16 16,5 C 18,3 C 16,1 C 84 % 1019,4 hPa 0,0 l/m 2 min 0 min 362 W/m 11,3 km/h (2 Bft) 97,87 %
10.08.2018 09:18 16,6 C 17,8 C 16,1 C 84 % 1019,4 hPa 0,0 l/m 2 min 0 min 336 W/m 13,5 km/h (3 Bft) 95,74 %
10.08.2018 09:20 16,6 C 17,8 C 16,1 C 83 % 1019,4 hPa 0,0 l/m 2 min 0 min 336 W/m 9,0 km/h (2 Bft) 95,74 %
10.08.2018 09:22 16,7 C 17,8 C 16,1 C 83 % 1019,5 hPa 0,0 l/m 2 min 0 min 424 W/m 6,8 km/h (2 Bft) 97,92 %
10.08.2018 09:24 16,7 C 17,2 C 16,1 C 83 % 1019,5 hPa 0,0 l/m 2 min 0 min 424 W/m 6,8 km/h (2 Bft) 97,87 %
10.08.2018 09:26 16,7 C 17,2 C 16,1 C 83 % 1019,6 hPa 0,0 l/m 2 min 0 min 415 W/m 13,5 km/h (3 Bft) 97,83 %
10.08.2018 09:28 16,8 C 17,2 C 16,1 C 82 % 1019,6 hPa 0,0 l/m 2 min 0 min 405 W/m 9,0 km/h (2 Bft) 91,67 %
10.08.2018 09:30 16,8 C 17,8 C 16,1 C 82 % 1019,5 hPa 0,0 l/m 2 min 0 min 458 W/m 9,0 km/h (2 Bft) 98,25 %
10.08.2018 09:32 16,9 C 17,8 C 16,1 C 82 % 1019,5 hPa 0,0 l/m 2 min 0 min 463 W/m 11,3 km/h (2 Bft) 95,74 %
10.08.2018 09:34 16,9 C 18,3 C 16,7 C 82 % 1019,6 hPa 0,0 l/m 2 min 0 min 443 W/m 11,3 km/h (2 Bft) 95,74 %
10.08.2018 09:36 17,1 C 18,3 C 16,7 C 82 % 1019,5 hPa 0,0 l/m 2 min 0 min 479 W/m 6,8 km/h (2 Bft) 97,87 %
10.08.2018 09:38 17,1 C 18,9 C 16,7 C 82 % 1019,5 hPa 0,0 l/m 2 min 0 min 492 W/m 6,8 km/h (2 Bft) 97,83 %
10.08.2018 09:40 17,2 C 18,9 C 16,7 C 82 % 1019,6 hPa 0,0 l/m 0 min 0 min 152 W/m 9,0 km/h (2 Bft) 97,87 %
10.08.2018 09:42 17,2 C 18,9 C 16,7 C 81 % 1019,5 hPa 0,0 l/m 2 min 0 min 470 W/m 13,5 km/h (3 Bft) 97,87 %
10.08.2018 09:44 17,3 C 20,0 C 16,7 C 81 % 1019,8 hPa 0,0 l/m 2 min 0 min 497 W/m 11,3 km/h (2 Bft) 97,87 %
10.08.2018 09:46 17,4 C 22,2 C 16,7 C 80 % 1019,5 hPa 0,0 l/m 2 min 0 min 496 W/m 9,0 km/h (2 Bft) 97,87 %
10.08.2018 09:48 17,4 C 22,2 C 16,7 C 81 % 1019,6 hPa 0,0 l/m 2 min 0 min 455 W/m 11,3 km/h (2 Bft) 97,87 %
10.08.2018 09:50 17,5 C 22,2 C 16,7 C 80 % 1019,5 hPa 0,0 l/m 2 min 0 min 448 W/m 11,3 km/h (2 Bft) 97,83 %
10.08.2018 09:52 17,6 C 22,2 C 17,2 C 79 % 1019,6 hPa 0,0 l/m 2 min 0 min 464 W/m 11,3 km/h (2 Bft) 100,00 %
10.08.2018 09:54 17,7 C 23,3 C 17,2 C 80 % 1019,6 hPa 0,0 l/m 2 min 0 min 457 W/m 9,0 km/h (2 Bft) 100,00 %
10.08.2018 09:56 17,8 C 22,2 C 17,2 C 79 % 1019,7 hPa 0,0 l/m 2 min 0 min 494 W/m 6,8 km/h (2 Bft) 100,00 %
10.08.2018 09:58 17,9 C 22,8 C 17,2 C 79 % 1019,6 hPa 0,0 l/m 2 min 0 min 507 W/m 6,8 km/h (2 Bft) 100,00 %
10.08.2018 10:00 18,1 C 22,2 C 17,2 C 78 % 1019,6 hPa 0,0 l/m 2 min 0 min 531 W/m 11,3 km/h (2 Bft) 100,00 %
10.08.2018 10:02 18,2 C 21,7 C 17,2 C 78 % 1019,6 hPa 0,0 l/m 2 min 0 min 538 W/m 13,5 km/h (3 Bft) 100,00 %
10.08.2018 10:04 18,3 C 20,6 C 17,2 C 77 % 1019,6 hPa 0,0 l/m 2 min 0 min 511 W/m 9,0 km/h (2 Bft) 100,00 %
10.08.2018 10:06 18,4 C 20,0 C 17,2 C 76 % 1019,7 hPa 0,0 l/m 2 min 0 min 541 W/m 13,5 km/h (3 Bft) 97,87 %
10.08.2018 10:08 18,5 C 19,4 C 17,2 C 76 % 1019,6 hPa 0,0 l/m 2 min 0 min 543 W/m 13,5 km/h (3 Bft) 100,00 %
10.08.2018 10:10 18,6 C 20,0 C 17,2 C 76 % 1019,6 hPa 0,0 l/m 2 min 0 min 558 W/m 9,0 km/h (2 Bft) 97,87 %
10.08.2018 10:12 18,7 C 20,0 C 17,8 C 75 % 1019,6 hPa 0,0 l/m 2 min 0 min 562 W/m 11,3 km/h (2 Bft) 95,65 %
10.08.2018 10:14 18,8 C 19,4 C 17,8 C 75 % 1019,6 hPa 0,0 l/m 2 min 0 min 577 W/m 11,3 km/h (2 Bft) 97,87 %
10.08.2018 10:16 18,8 C 19,4 C 17,8 C 74 % 1019,7 hPa 0,0 l/m 2 min 0 min 575 W/m 11,3 km/h (2 Bft) 95,74 %
10.08.2018 10:18 18,9 C 20,0 C 17,8 C 74 % 1019,7 hPa 0,0 l/m 2 min 0 min 540 W/m 11,3 km/h (2 Bft) 95,74 %
10.08.2018 10:20 18,9 C 20,0 C 17,8 C 74 % 1019,7 hPa 0,0 l/m 2 min 0 min 551 W/m 11,3 km/h (2 Bft) 95,74 %
10.08.2018 10:22 18,9 C 20,0 C 17,8 C 73 % 1019,7 hPa 0,0 l/m 2 min 0 min 551 W/m 11,3 km/h (2 Bft) 95,74 %
10.08.2018 10:24 19,0 C 20,0 C 17,8 C 73 % 1019,8 hPa 0,0 l/m 2 min 0 min 576 W/m 11,3 km/h (2 Bft) 95,65 %
10.08.2018 10:26 19,0 C 20,6 C 17,8 C 72 % 1019,7 hPa 0,0 l/m 2 min 0 min 616 W/m 6,8 km/h (2 Bft) 91,49 %
10.08.2018 10:28 19,1 C 20,6 C 17,8 C 72 % 1019,7 hPa 0,0 l/m 2 min 0 min 622 W/m 11,3 km/h (2 Bft) 95,74 %
10.08.2018 10:30 19,1 C 20,0 C 17,8 C 71 % 1019,8 hPa 0,0 l/m 2 min 0 min 595 W/m 15,8 km/h (3 Bft) 91,49 %
10.08.2018 10:32 19,1 C 20,6 C 17,8 C 70 % 1019,7 hPa 0,0 l/m 2 min 0 min 632 W/m 13,5 km/h (3 Bft) 93,62 %
10.08.2018 10:34 19,1 C 19,4 C 17,8 C 70 % 1019,8 hPa 0,0 l/m 2 min 0 min 330 W/m 11,3 km/h (2 Bft) 91,49 %
10.08.2018 10:36 19,1 C 19,4 C 17,2 C 69 % 1019,7 hPa 0,0 l/m 0 min 0 min 132 W/m 6,8 km/h (2 Bft) 95,65 %
10.08.2018 10:38 19,1 C 20,0 C 17,2 C 69 % 1020,0 hPa 0,0 l/m 0 min 0 min 176 W/m 13,5 km/h (3 Bft) 93,62 %
10.08.2018 10:40 19,1 C 20,0 C 17,2 C 69 % 1019,9 hPa 0,0 l/m 0 min 0 min 179 W/m 13,5 km/h (3 Bft) 95,74 %
10.08.2018 10:42 19,1 C 19,4 C 17,2 C 69 % 1019,9 hPa 0,0 l/m 0 min 0 min 151 W/m 15,8 km/h (3 Bft) 95,74 %
10.08.2018 10:44 19,0 C 18,9 C 17,2 C 68 % 1019,9 hPa 0,0 l/m 0 min 0 min 102 W/m 9,0 km/h (2 Bft) 93,62 %
10.08.2018 10:46 18,9 C 18,9 C 17,2 C 68 % 1019,9 hPa 0,0 l/m 0 min 0 min 114 W/m 6,8 km/h (2 Bft) 93,62 %
10.08.2018 10:48 18,9 C 18,9 C 17,2 C 69 % 1019,8 hPa 0,0 l/m 0 min 0 min 116 W/m 9,0 km/h (2 Bft) 95,65 %
10.08.2018 10:50 18,9 C 18,3 C 17,2 C 69 % 1019,9 hPa 0,0 l/m 0 min 0 min 119 W/m 11,3 km/h (2 Bft) 95,74 %
10.08.2018 10:52 18,8 C 18,9 C 17,2 C 69 % 1019,9 hPa 0,0 l/m 0 min 0 min 133 W/m 11,3 km/h (2 Bft) 95,74 %
10.08.2018 10:54 18,8 C 21,7 C 17,2 C 69 % 1019,8 hPa 0,0 l/m 2 min 0 min 338 W/m 9,0 km/h (2 Bft) 95,74 %
10.08.2018 10:56 18,8 C 23,9 C 17,8 C 69 % 1019,7 hPa 0,0 l/m 2 min 0 min 651 W/m 11,3 km/h (2 Bft) 91,49 %
10.08.2018 10:58 18,9 C 24,4 C 17,8 C 69 % 1019,7 hPa 0,0 l/m 2 min 0 min 663 W/m 13,5 km/h (3 Bft) 95,74 %
10.08.2018 11:00 19,1 C 25,0 C 18,3 C 69 % 1019,7 hPa 0,0 l/m 2 min 0 min 692 W/m 13,5 km/h (3 Bft) 100,00 %
10.08.2018 11:02 19,2 C 25,0 C 18,3 C 68 % 1019,7 hPa 0,0 l/m 2 min 0 min 690 W/m 15,8 km/h (3 Bft) 97,87 %
10.08.2018 11:04 19,3 C 23,9 C 18,3 C 68 % 1019,8 hPa 0,0 l/m 2 min 0 min 724 W/m 9,0 km/h (2 Bft) 100,00 %
10.08.2018 11:06 19,5 C 23,9 C 18,3 C 68 % 1019,7 hPa 0,0 l/m 2 min 0 min 733 W/m 9,0 km/h (2 Bft) 100,00 %
10.08.2018 11:08 19,6 C 23,3 C 18,3 C 68 % 1019,7 hPa 0,0 l/m 2 min 0 min 733 W/m 9,0 km/h (2 Bft) 97,87 %
10.08.2018 11:10 19,7 C 24,4 C 18,3 C 68 % 1019,8 hPa 0,0 l/m 2 min 0 min 732 W/m 9,0 km/h (2 Bft) 95,74 %
10.08.2018 11:12 19,8 C 24,4 C 18,3 C 66 % 1019,8 hPa 0,0 l/m 2 min 0 min 728 W/m 11,3 km/h (2 Bft) 100,00 %
10.08.2018 11:14 19,9 C 26,1 C 18,9 C 67 % 1019,7 hPa 0,0 l/m 2 min 0 min 732 W/m 15,8 km/h (3 Bft) 100,00 %
10.08.2018 11:16 20,1 C 26,1 C 18,9 C 66 % 1019,8 hPa 0,0 l/m 2 min 0 min 765 W/m 15,8 km/h (3 Bft) 100,00 %
10.08.2018 11:18 20,3 C 27,8 C 18,9 C 67 % 1019,7 hPa 0,0 l/m 2 min 0 min 762 W/m 9,0 km/h (2 Bft) 97,87 %
10.08.2018 11:20 20,4 C 27,8 C 19,4 C 66 % 1019,8 hPa 0,0 l/m 2 min 0 min 756 W/m 11,3 km/h (2 Bft) 100,00 %
10.08.2018 11:22 20,6 C 26,7 C 18,9 C 64 % 1020,1 hPa 0,0 l/m 2 min 0 min 747 W/m 13,5 km/h (3 Bft) 100,00 %
10.08.2018 11:24 20,7 C 26,1 C 18,9 C 64 % 1019,8 hPa 0,0 l/m 2 min 0 min 727 W/m 13,5 km/h (3 Bft) 100,00 %
10.08.2018 11:26 20,9 C 25,0 C 18,9 C 64 % 1019,8 hPa 0,0 l/m 2 min 0 min 728 W/m 15,8 km/h (3 Bft) 100,00 %
10.08.2018 11:28 20,9 C 23,9 C 18,9 C 63 % 1019,8 hPa 0,0 l/m 0 min 0 min 288 W/m 9,0 km/h (2 Bft) 100,00 %
10.08.2018 11:30 20,9 C 21,7 C 18,9 C 61 % 1019,9 hPa 0,0 l/m 0 min 0 min 137 W/m 15,8 km/h (3 Bft) 100,00 %
10.08.2018 11:32 20,9 C 21,1 C 18,3 C 59 % 1019,9 hPa 0,0 l/m 0 min 0 min 140 W/m 11,3 km/h (2 Bft) 100,00 %
10.08.2018 11:34 20,8 C 20,6 C 18,3 C 61 % 1019,9 hPa 0,0 l/m 0 min 0 min 140 W/m 13,5 km/h (3 Bft) 100,00 %
10.08.2018 11:36 20,7 C 20,0 C 18,3 C 61 % 1019,8 hPa 0,0 l/m 0 min 0 min 118 W/m 11,3 km/h (2 Bft) 100,00 %
10.08.2018 11:38 20,6 C 19,4 C 17,8 C 61 % 1019,9 hPa 0,0 l/m 0 min 0 min 99 W/m 9,0 km/h (2 Bft) 100,00 %
10.08.2018 11:40 20,5 C 20,0 C 17,8 C 62 % 1019,9 hPa 0,0 l/m 0 min 0 min 116 W/m 6,8 km/h (2 Bft) 100,00 %
10.08.2018 11:42 20,4 C 21,1 C 17,8 C 62 % 1019,9 hPa 0,0 l/m 0 min 0 min 127 W/m 11,3 km/h (2 Bft) 100,00 %
10.08.2018 11:44 20,3 C 21,7 C 17,8 C 62 % 1019,9 hPa 0,0 l/m 0 min 0 min 127 W/m 13,5 km/h (3 Bft) 100,00 %
10.08.2018 11:46 20,3 C 22,8 C 18,3 C 62 % 1020,1 hPa 0,0 l/m 0 min 0 min 105 W/m 9,0 km/h (2 Bft) 100,00 %
10.08.2018 11:48 20,3 C 23,3 C 18,3 C 64 % 1020,0 hPa 0,0 l/m 2 min 0 min 653 W/m 9,0 km/h (2 Bft) 100,00 %
10.08.2018 11:50 20,3 C 22,2 C 18,3 C 63 % 1020,1 hPa 0,0 l/m 0 min 0 min 90 W/m 9,0 km/h (2 Bft) 100,00 %
10.08.2018 11:52 20,2 C 20,6 C 18,3 C 61 % 1019,9 hPa 0,0 l/m 0 min 0 min 88 W/m 18,0 km/h (3 Bft) 100,00 %
10.08.2018 11:54 20,2 C 22,8 C 18,3 C 61 % 1020,0 hPa 0,0 l/m 0 min 0 min 119 W/m 9,0 km/h (2 Bft) 100,00 %
10.08.2018 11:56 20,2 C 24,4 C 18,3 C 61 % 1019,9 hPa 0,0 l/m 2 min 0 min 750 W/m 11,3 km/h (2 Bft) 100,00 %
10.08.2018 11:58 20,3 C 24,4 C 18,3 C 61 % 1020,0 hPa 0,0 l/m 2 min 0 min 747 W/m 13,5 km/h (3 Bft) 100,00 %
10.08.2018 12:00 20,3 C 23,3 C 18,3 C 61 % 1020,0 hPa 0,0 l/m 0 min 0 min 132 W/m 9,0 km/h (2 Bft) 100,00 %
10.08.2018 12:02 20,4 C 25,0 C 18,9 C 61 % 1020,0 hPa 0,0 l/m 2 min 0 min 572 W/m 13,5 km/h (3 Bft) 100,00 %
10.08.2018 12:04 20,5 C 26,1 C 18,9 C 60 % 1020,0 hPa 0,0 l/m 2 min 0 min 809 W/m 15,8 km/h (3 Bft) 100,00 %
10.08.2018 12:08 20,8 C 27,2 C 19,4 C 58 % 1019,9 hPa 0,0 l/m 4 min 0 min 817 W/m 15,8 km/h (3 Bft) 98,94 %
10.08.2018 12:10 21,0 C 27,2 C 19,4 C 58 % 1019,9 hPa 0,0 l/m 2 min 0 min 616 W/m 20,3 km/h (4 Bft) 100,00 %
10.08.2018 12:12 21,2 C 27,2 C 19,4 C 57 % 1020,0 hPa 0,0 l/m 0 min 0 min 229 W/m 11,3 km/h (2 Bft) 100,00 %
10.08.2018 12:14 21,3 C 27,2 C 20,0 C 55 % 1019,9 hPa 0,0 l/m 0 min 0 min 228 W/m 13,5 km/h (3 Bft) 97,87 %
10.08.2018 12:16 21,4 C 26,7 C 20,0 C 54 % 1020,2 hPa 0,0 l/m 0 min 0 min 164 W/m 20,3 km/h (4 Bft) 100,00 %
10.08.2018 12:18 21,5 C 23,9 C 19,4 C 53 % 1020,0 hPa 0,0 l/m 0 min 0 min 163 W/m 18,0 km/h (3 Bft) 97,87 %
10.08.2018 12:20 21,6 C 25,6 C 19,4 C 54 % 1020,0 hPa 0,0 l/m 0 min 0 min 144 W/m 15,8 km/h (3 Bft) 97,87 %
10.08.2018 12:22 21,7 C 26,7 C 20,0 C 56 % 1020,0 hPa 0,0 l/m 0 min 0 min 144 W/m 9,0 km/h (2 Bft) 97,83 %
10.08.2018 12:24 21,8 C 27,8 C 20,0 C 56 % 1019,9 hPa 0,0 l/m 0 min 0 min 172 W/m 6,8 km/h (2 Bft) 97,87 %
10.08.2018 12:26 21,9 C 27,8 C 20,6 C 56 % 1020,0 hPa 0,0 l/m 0 min 0 min 179 W/m 15,8 km/h (3 Bft) 97,87 %
10.08.2018 12:28 22,0 C 27,8 C 20,6 C 54 % 1019,9 hPa 0,0 l/m 0 min 0 min 179 W/m 15,8 km/h (3 Bft) 97,87 %
10.08.2018 12:30 22,2 C 28,3 C 21,1 C 52 % 1020,0 hPa 0,0 l/m 0 min 0 min 170 W/m 9,0 km/h (2 Bft) 97,87 %
10.08.2018 12:32 22,3 C 28,9 C 21,1 C 52 % 1019,9 hPa 0,0 l/m 0 min 0 min 245 W/m 18,0 km/h (3 Bft) 97,87 %
10.08.2018 12:34 22,4 C 28,3 C 21,1 C 52 % 1020,0 hPa 0,0 l/m 0 min 0 min 321 W/m 15,8 km/h (3 Bft) 97,83 %
10.08.2018 12:36 22,6 C 28,9 C 21,1 C 53 % 1020,0 hPa 0,0 l/m 0 min 0 min 239 W/m 13,5 km/h (3 Bft) 97,92 %
10.08.2018 12:38 22,7 C 29,4 C 21,1 C 53 % 1019,9 hPa 0,0 l/m 2 min 0 min 452 W/m 15,8 km/h (3 Bft) 100,00 %
10.08.2018 12:40 22,9 C 30,0 C 21,7 C 52 % 1019,9 hPa 0,0 l/m 2 min 0 min 483 W/m 9,0 km/h (2 Bft) 96,55 %
10.08.2018 12:42 23,1 C 29,4 C 21,1 C 52 % 1019,9 hPa 0,0 l/m 2 min 0 min 791 W/m 20,3 km/h (4 Bft) 95,74 %
10.08.2018 12:44 23,2 C 28,9 C 21,1 C 52 % 1019,8 hPa 0,0 l/m 2 min 0 min 646 W/m 11,3 km/h (2 Bft) 95,74 %
10.08.2018 12:46 23,3 C 28,3 C 21,7 C 52 % 1020,0 hPa 0,0 l/m 0 min 0 min 253 W/m 11,3 km/h (2 Bft) 93,48 %
10.08.2018 12:48 23,4 C 27,2 C 21,7 C 50 % 1019,9 hPa 0,0 l/m 0 min 0 min 338 W/m 20,3 km/h (4 Bft) 95,74 %
10.08.2018 12:50 23,4 C 25,0 C 21,1 C 51 % 1019,9 hPa 0,0 l/m 0 min 0 min 230 W/m 15,8 km/h (3 Bft) 95,74 %
10.08.2018 12:52 23,3 C 23,3 C 20,6 C 51 % 1020,0 hPa 0,0 l/m 0 min 0 min 172 W/m 6,8 km/h (2 Bft) 93,62 %
10.08.2018 12:54 23,3 C 23,3 C 20,6 C 52 % 1019,9 hPa 0,0 l/m 0 min 0 min 167 W/m 6,8 km/h (2 Bft) 95,74 %
10.08.2018 12:56 23,2 C 22,2 C 20,0 C 51 % 1020,0 hPa 0,0 l/m 0 min 0 min 149 W/m 9,0 km/h (2 Bft) 93,62 %
10.08.2018 12:58 23,1 C 23,9 C 20,0 C 52 % 1019,9 hPa 0,0 l/m 0 min 0 min 179 W/m 9,0 km/h (2 Bft) 93,48 %
10.08.2018 13:00 23,0 C 26,1 C 20,0 C 52 % 1019,9 hPa 0,0 l/m 2 min 0 min 875 W/m 6,8 km/h (2 Bft) 95,74 %
10.08.2018 13:02 22,9 C 25,0 C 20,6 C 53 % 1020,0 hPa 0,0 l/m 2 min 0 min 637 W/m 9,0 km/h (2 Bft) 93,62 %
10.08.2018 13:04 22,9 C 25,0 C 20,6 C 52 % 1019,7 hPa 0,0 l/m 0 min 0 min 176 W/m 13,5 km/h (3 Bft) 95,74 %
10.08.2018 13:06 22,9 C 27,2 C 20,6 C 53 % 1019,9 hPa 0,0 l/m 0 min 0 min 199 W/m 9,0 km/h (2 Bft) 95,74 %
10.08.2018 13:08 22,9 C 27,2 C 20,6 C 53 % 1020,0 hPa 0,0 l/m 0 min 0 min 211 W/m 11,3 km/h (2 Bft) 93,62 %
10.08.2018 13:10 22,9 C 28,3 C 20,6 C 53 % 1019,7 hPa 0,0 l/m 0 min 0 min 365 W/m 9,0 km/h (2 Bft) 93,48 %
10.08.2018 13:12 22,9 C 27,2 C 21,1 C 52 % 1020,0 hPa 0,0 l/m 0 min 0 min 307 W/m 22,5 km/h (4 Bft) 93,62 %
10.08.2018 13:14 22,9 C 24,4 C 21,1 C 49 % 1019,8 hPa 0,0 l/m 0 min 0 min 176 W/m 20,3 km/h (4 Bft) 93,62 %
10.08.2018 13:16 22,9 C 23,9 C 20,6 C 50 % 1019,8 hPa 0,0 l/m 0 min 0 min 178 W/m 11,3 km/h (2 Bft) 93,62 %
10.08.2018 13:18 22,9 C 23,9 C 21,1 C 51 % 1019,8 hPa 0,0 l/m 0 min 0 min 369 W/m 15,8 km/h (3 Bft) 93,62 %
10.08.2018 13:20 22,9 C 25,0 C 21,1 C 52 % 1019,8 hPa 0,0 l/m 2 min 0 min 1016 W/m 11,3 km/h (2 Bft) 91,30 %
10.08.2018 13:22 23,0 C 24,4 C 21,7 C 51 % 1019,8 hPa 0,0 l/m 2 min 0 min 952 W/m 18,0 km/h (3 Bft) 95,74 %
10.08.2018 13:24 23,0 C 23,3 C 21,1 C 50 % 1019,8 hPa 0,0 l/m 2 min 0 min 402 W/m 15,8 km/h (3 Bft) 91,49 %
10.08.2018 13:26 22,9 C 22,8 C 21,1 C 49 % 1019,9 hPa 0,0 l/m 2 min 0 min 744 W/m 13,5 km/h (3 Bft) 95,74 %
10.08.2018 13:28 22,9 C 23,9 C 21,1 C 49 % 1019,8 hPa 0,0 l/m 2 min 0 min 762 W/m 9,0 km/h (2 Bft) 95,74 %
10.08.2018 13:30 22,9 C 24,4 C 21,7 C 50 % 1019,8 hPa 0,0 l/m 2 min 0 min 947 W/m 15,8 km/h (3 Bft) 95,74 %
10.08.2018 13:32 22,9 C 24,4 C 21,7 C 52 % 1019,8 hPa 0,0 l/m 2 min 0 min 926 W/m 13,5 km/h (3 Bft) 95,65 %
10.08.2018 13:34 23,0 C 24,4 C 21,7 C 52 % 1019,8 hPa 0,0 l/m 2 min 0 min 932 W/m 11,3 km/h (2 Bft) 93,62 %
10.08.2018 13:36 23,1 C 23,9 C 21,7 C 50 % 1019,8 hPa 0,0 l/m 2 min 0 min 944 W/m 11,3 km/h (2 Bft) 93,75 %
10.08.2018 13:38 23,2 C 23,9 C 21,7 C 51 % 1019,8 hPa 0,0 l/m 2 min 0 min 941 W/m 11,3 km/h (2 Bft) 93,62 %
10.08.2018 13:40 23,2 C 23,9 C 21,7 C 49 % 1019,6 hPa 0,0 l/m 2 min 0 min 910 W/m 22,5 km/h (4 Bft) 95,74 %
10.08.2018 13:42 23,2 C 23,3 C 21,7 C 48 % 1019,7 hPa 0,0 l/m 2 min 0 min 913 W/m 20,3 km/h (4 Bft) 95,74 %
10.08.2018 13:44 23,2 C 23,3 C 22,2 C 48 % 1019,6 hPa 0,0 l/m 2 min 0 min 934 W/m 18,0 km/h (3 Bft) 95,65 %
10.08.2018 13:46 23,2 C 22,8 C 21,7 C 47 % 1019,9 hPa 0,0 l/m 2 min 0 min 942 W/m 13,5 km/h (3 Bft) 95,74 %
10.08.2018 13:48 23,2 C 22,8 C 21,7 C 48 % 1019,7 hPa 0,0 l/m 2 min 0 min 946 W/m 13,5 km/h (3 Bft) 93,62 %
10.08.2018 13:50 23,2 C 22,8 C 21,7 C 48 % 1019,7 hPa 0,0 l/m 2 min 0 min 949 W/m 13,5 km/h (3 Bft) 97,87 %
10.08.2018 13:52 23,2 C 23,3 C 21,7 C 49 % 1019,8 hPa 0,0 l/m 2 min 0 min 1044 W/m 15,8 km/h (3 Bft) 97,87 %
10.08.2018 13:54 23,1 C 23,3 C 21,7 C 48 % 1019,8 hPa 0,0 l/m 2 min 0 min 1039 W/m 15,8 km/h (3 Bft) 97,87 %
10.08.2018 13:56 23,1 C 23,3 C 21,7 C 49 % 1019,7 hPa 0,0 l/m 2 min 0 min 998 W/m 13,5 km/h (3 Bft) 97,83 %
10.08.2018 13:58 23,2 C 23,3 C 22,2 C 49 % 1019,6 hPa 0,0 l/m 2 min 0 min 879 W/m 13,5 km/h (3 Bft) 97,87 %
10.08.2018 14:00 23,2 C 23,3 C 21,7 C 49 % 1019,7 hPa 0,0 l/m 2 min 0 min 531 W/m 11,3 km/h (2 Bft) 97,87 %
10.08.2018 14:02 23,2 C 23,3 C 21,7 C 50 % 1019,8 hPa 0,0 l/m 2 min 0 min 707 W/m 13,5 km/h (3 Bft) 93,62 %
10.08.2018 14:04 23,2 C 23,3 C 21,7 C 49 % 1019,7 hPa 0,0 l/m 2 min 0 min 485 W/m 11,3 km/h (2 Bft) 97,87 %
10.08.2018 14:06 23,2 C 23,9 C 22,2 C 49 % 1019,7 hPa 0,0 l/m 2 min 0 min 1015 W/m 18,0 km/h (3 Bft) 100,00 %
10.08.2018 14:08 23,2 C 23,3 C 21,7 C 48 % 1019,7 hPa 0,0 l/m 2 min 0 min 1009 W/m 18,0 km/h (3 Bft) 100,00 %
10.08.2018 14:10 23,2 C 23,3 C 21,7 C 49 % 1019,7 hPa 0,0 l/m 2 min 0 min 1020 W/m 13,5 km/h (3 Bft) 100,00 %
10.08.2018 14:12 23,2 C 23,9 C 21,7 C 49 % 1019,6 hPa 0,0 l/m 2 min 0 min 1020 W/m 15,8 km/h (3 Bft) 95,74 %
10.08.2018 14:14 23,2 C 23,3 C 21,7 C 49 % 1019,6 hPa 0,0 l/m 2 min 0 min 728 W/m 6,8 km/h (2 Bft) 97,14 %
10.08.2018 14:16 23,2 C 22,8 C 21,7 C 48 % 1019,7 hPa 0,0 l/m 0 min 0 min 344 W/m 15,8 km/h (3 Bft) 98,31 %
10.08.2018 14:18 23,2 C 22,8 C 21,1 C 48 % 1019,7 hPa 0,0 l/m 0 min 0 min 318 W/m 11,3 km/h (2 Bft) 100,00 %
10.08.2018 14:20 23,1 C 22,8 C 21,1 C 50 % 1019,7 hPa 0,0 l/m 0 min 0 min 312 W/m 4,5 km/h (1 Bft) 100,00 %
10.08.2018 14:22 23,1 C 22,2 C 21,1 C 50 % 1019,8 hPa 0,0 l/m 0 min 0 min 315 W/m 18,0 km/h (3 Bft) 100,00 %
10.08.2018 14:24 22,9 C 22,8 C 21,1 C 50 % 1019,7 hPa 0,0 l/m 0 min 0 min 315 W/m 11,3 km/h (2 Bft) 97,14 %
10.08.2018 14:26 22,9 C 22,8 C 20,6 C 51 % 1019,7 hPa 0,0 l/m 0 min 0 min 322 W/m 6,8 km/h (2 Bft) 98,28 %
10.08.2018 14:28 22,8 C 22,2 C 20,6 C 50 % 1019,7 hPa 0,0 l/m 0 min 0 min 355 W/m 13,5 km/h (3 Bft) 100,00 %
10.08.2018 14:30 22,7 C 22,2 C 20,6 C 51 % 1019,6 hPa 0,0 l/m 0 min 0 min 343 W/m 11,3 km/h (2 Bft) 100,00 %
10.08.2018 14:32 22,6 C 22,2 C 20,6 C 51 % 1019,6 hPa 0,0 l/m 0 min 0 min 376 W/m 13,5 km/h (3 Bft) 100,00 %
10.08.2018 14:34 22,6 C 22,2 C 20,6 C 51 % 1019,7 hPa 0,0 l/m 0 min 0 min 381 W/m 11,3 km/h (2 Bft) 100,00 %
10.08.2018 14:36 22,6 C 22,8 C 21,1 C 51 % 1019,6 hPa 0,0 l/m 0 min 0 min 355 W/m 11,3 km/h (2 Bft) 100,00 %
10.08.2018 14:38 22,5 C 22,8 C 21,1 C 51 % 1019,7 hPa 0,0 l/m 0 min 0 min 336 W/m 9,0 km/h (2 Bft) 100,00 %
10.08.2018 14:40 22,5 C 22,8 C 21,1 C 52 % 1019,7 hPa 0,0 l/m 0 min 0 min 301 W/m 13,5 km/h (3 Bft) 100,00 %
10.08.2018 14:42 22,5 C 22,8 C 21,1 C 52 % 1019,6 hPa 0,0 l/m 0 min 0 min 216 W/m 4,5 km/h (1 Bft) 100,00 %
10.08.2018 14:44 22,5 C 22,8 C 21,1 C 52 % 1019,6 hPa 0,0 l/m 0 min 0 min 240 W/m 6,8 km/h (2 Bft) 100,00 %
10.08.2018 14:46 22,5 C 22,8 C 21,1 C 51 % 1019,6 hPa 0,0 l/m 0 min 0 min 315 W/m 9,0 km/h (2 Bft) 100,00 %
10.08.2018 14:48 22,5 C 22,2 C 21,1 C 51 % 1019,6 hPa 0,0 l/m 0 min 0 min 334 W/m 9,0 km/h (2 Bft) 100,00 %
10.08.2018 14:50 22,5 C 23,3 C 21,1 C 52 % 1019,6 hPa 0,0 l/m 0 min 0 min 328 W/m 13,5 km/h (3 Bft) 95,74 %
10.08.2018 14:52 22,5 C 22,8 C 21,1 C 51 % 1019,6 hPa 0,0 l/m 0 min 0 min 238 W/m 6,8 km/h (2 Bft) 100,00 %
10.08.2018 14:54 22,5 C 22,8 C 21,1 C 51 % 1019,6 hPa 0,0 l/m 0 min 0 min 201 W/m 6,8 km/h (2 Bft) 100,00 %
10.08.2018 14:56 22,6 C 22,8 C 21,1 C 50 % 1019,6 hPa 0,0 l/m 2 min 0 min 921 W/m 13,5 km/h (3 Bft) 100,00 %
10.08.2018 14:58 22,6 C 23,3 C 21,7 C 51 % 1019,6 hPa 0,0 l/m 2 min 0 min 967 W/m 13,5 km/h (3 Bft) 100,00 %
10.08.2018 15:00 22,6 C 22,8 C 21,7 C 50 % 1019,6 hPa 0,0 l/m 2 min 0 min 967 W/m 11,3 km/h (2 Bft) 100,00 %
10.08.2018 15:02 22,7 C 22,8 C 21,7 C 49 % 1019,6 hPa 0,0 l/m 2 min 0 min 744 W/m 11,3 km/h (2 Bft) 97,87 %
10.08.2018 15:04 22,7 C 23,3 C 21,7 C 50 % 1019,6 hPa 0,0 l/m 2 min 0 min 807 W/m 6,8 km/h (2 Bft) 100,00 %
10.08.2018 15:06 22,8 C 23,3 C 21,7 C 50 % 1019,6 hPa 0,0 l/m 2 min 0 min 903 W/m 11,3 km/h (2 Bft) 97,87 %
10.08.2018 15:08 22,8 C 23,3 C 21,7 C 50 % 1019,6 hPa 0,0 l/m 2 min 0 min 869 W/m 13,5 km/h (3 Bft) 100,00 %
10.08.2018 15:10 22,8 C 22,8 C 21,1 C 50 % 1019,6 hPa 0,0 l/m 2 min 0 min 821 W/m 11,3 km/h (2 Bft) 100,00 %
10.08.2018 15:12 22,9 C 22,8 C 21,1 C 51 % 1019,6 hPa 0,0 l/m 2 min 0 min 815 W/m 15,8 km/h (3 Bft) 100,00 %
10.08.2018 15:14 22,9 C 22,8 C 21,1 C 49 % 1019,5 hPa 0,0 l/m 2 min 0 min 810 W/m 13,5 km/h (3 Bft) 100,00 %
10.08.2018 15:16 22,9 C 23,3 C 21,7 C 50 % 1019,5 hPa 0,0 l/m 2 min 0 min 805 W/m 9,0 km/h (2 Bft) 97,87 %
10.08.2018 15:18 22,9 C 23,3 C 21,7 C 49 % 1019,5 hPa 0,0 l/m 2 min 0 min 805 W/m 11,3 km/h (2 Bft) 97,87 %
10.08.2018 15:20 23,0 C 22,8 C 22,2 C 47 % 1019,5 hPa 0,0 l/m 2 min 0 min 805 W/m 13,5 km/h (3 Bft) 97,87 %
10.08.2018 15:22 23,1 C 22,8 C 21,7 C 48 % 1019,5 hPa 0,0 l/m 2 min 0 min 796 W/m 13,5 km/h (3 Bft) 97,87 %
10.08.2018 15:24 23,1 C 23,3 C 22,2 C 48 % 1019,5 hPa 0,0 l/m 2 min 0 min 797 W/m 13,5 km/h (3 Bft) 95,65 %
10.08.2018 15:26 23,1 C 23,3 C 22,2 C 48 % 1019,4 hPa 0,0 l/m 2 min 0 min 797 W/m 6,8 km/h (2 Bft) 97,87 %
10.08.2018 15:28 23,2 C 23,3 C 22,2 C 50 % 1019,4 hPa 0,0 l/m 2 min 0 min 797 W/m 9,0 km/h (2 Bft) 95,74 %
10.08.2018 15:30 23,2 C 22,8 C 21,7 C 47 % 1019,5 hPa 0,0 l/m 2 min 0 min 796 W/m 15,8 km/h (3 Bft) 97,87 %
10.08.2018 15:32 23,2 C 22,8 C 22,2 C 47 % 1019,5 hPa 0,0 l/m 2 min 0 min 824 W/m 13,5 km/h (3 Bft) 97,87 %
10.08.2018 15:34 23,2 C 23,3 C 22,2 C 48 % 1019,3 hPa 0,0 l/m 2 min 0 min 810 W/m 9,0 km/h (2 Bft) 97,87 %
10.08.2018 15:36 23,3 C 23,9 C 22,2 C 49 % 1019,4 hPa 0,0 l/m 2 min 0 min 817 W/m 9,0 km/h (2 Bft) 97,83 %
10.08.2018 15:38 23,3 C 23,9 C 22,2 C 50 % 1019,4 hPa 0,0 l/m 2 min 0 min 845 W/m 6,8 km/h (2 Bft) 97,87 %
10.08.2018 15:40 23,4 C 23,3 C 22,2 C 48 % 1019,4 hPa 0,0 l/m 2 min 0 min 853 W/m 13,5 km/h (3 Bft) 97,87 %
10.08.2018 15:42 23,4 C 22,8 C 21,7 C 47 % 1019,5 hPa 0,0 l/m 0 min 0 min 251 W/m 9,0 km/h (2 Bft) 95,74 %
10.08.2018 15:44 23,4 C 23,3 C 21,7 C 47 % 1019,4 hPa 0,0 l/m 0 min 0 min 335 W/m 13,5 km/h (3 Bft) 97,87 %
10.08.2018 15:46 23,4 C 23,9 C 22,2 C 48 % 1019,3 hPa 0,0 l/m 2 min 0 min 887 W/m 9,0 km/h (2 Bft) 97,87 %
10.08.2018 15:48 23,4 C 23,9 C 22,2 C 49 % 1019,3 hPa 0,0 l/m 2 min 0 min 884 W/m 6,8 km/h (2 Bft) 97,83 %
10.08.2018 15:50 23,4 C 23,9 C 22,2 C 48 % 1019,2 hPa 0,0 l/m 2 min 0 min 884 W/m 11,3 km/h (2 Bft) 95,74 %
10.08.2018 15:52 23,5 C 23,9 C 22,8 C 47 % 1019,3 hPa 0,0 l/m 2 min 0 min 858 W/m 15,8 km/h (3 Bft) 97,87 %
10.08.2018 15:54 23,6 C 23,9 C 22,8 C 47 % 1019,2 hPa 0,0 l/m 2 min 0 min 853 W/m 13,5 km/h (3 Bft) 97,87 %
10.08.2018 15:56 23,6 C 23,9 C 22,8 C 48 % 1019,4 hPa 0,0 l/m 2 min 0 min 847 W/m 13,5 km/h (3 Bft) 95,74 %
10.08.2018 15:58 23,6 C 23,9 C 22,2 C 47 % 1019,4 hPa 0,0 l/m 2 min 0 min 800 W/m 6,8 km/h (2 Bft) 95,74 %
10.08.2018 16:00 23,7 C 23,9 C 22,2 C 48 % 1019,3 hPa 0,0 l/m 2 min 0 min 752 W/m 15,8 km/h (3 Bft) 97,83 %
10.08.2018 16:02 23,7 C 23,3 C 22,2 C 47 % 1019,4 hPa 0,0 l/m 0 min 0 min 119 W/m 18,0 km/h (3 Bft) 97,87 %
10.08.2018 16:04 23,7 C 23,3 C 22,2 C 47 % 1019,3 hPa 0,0 l/m 2 min 0 min 384 W/m 11,3 km/h (2 Bft) 100,00 %
10.08.2018 16:06 23,7 C 23,9 C 22,2 C 48 % 1019,2 hPa 0,0 l/m 2 min 0 min 836 W/m 13,5 km/h (3 Bft) 95,74 %
10.08.2018 16:08 23,7 C 23,3 C 22,2 C 48 % 1019,2 hPa 0,0 l/m 2 min 0 min 359 W/m 11,3 km/h (2 Bft) 100,00 %
10.08.2018 16:10 23,6 C 22,8 C 21,7 C 48 % 1019,2 hPa 0,0 l/m 0 min 0 min 120 W/m 9,0 km/h (2 Bft) 97,83 %
10.08.2018 16:12 23,6 C 22,8 C 21,7 C 48 % 1019,3 hPa 0,0 l/m 0 min 0 min 136 W/m 11,3 km/h (2 Bft) 97,87 %
10.08.2018 16:14 23,6 C 22,8 C 21,1 C 48 % 1019,2 hPa 0,0 l/m 2 min 0 min 612 W/m 6,8 km/h (2 Bft) 95,74 %
10.08.2018 16:16 23,5 C 22,8 C 21,1 C 48 % 1019,2 hPa 0,0 l/m 0 min 0 min 308 W/m 11,3 km/h (2 Bft) 97,87 %
10.08.2018 16:18 23,4 C 24,4 C 21,1 C 49 % 1019,2 hPa 0,0 l/m 0 min 0 min 185 W/m 6,8 km/h (2 Bft) 97,87 %
10.08.2018 16:20 23,3 C 23,9 C 21,1 C 49 % 1019,1 hPa 0,0 l/m 0 min 0 min 185 W/m 13,5 km/h (3 Bft) 97,87 %
10.08.2018 16:22 23,3 C 25,0 C 21,7 C 48 % 1019,3 hPa 0,0 l/m 2 min 0 min 711 W/m 18,0 km/h (3 Bft) 97,83 %
10.08.2018 16:24 23,3 C 25,0 C 22,2 C 47 % 1019,2 hPa 0,0 l/m 2 min 0 min 807 W/m 13,5 km/h (3 Bft) 93,62 %
10.08.2018 16:26 23,3 C 25,0 C 22,2 C 48 % 1019,1 hPa 0,0 l/m 2 min 0 min 798 W/m 15,8 km/h (3 Bft) 95,74 %
10.08.2018 16:28 23,4 C 25,0 C 22,2 C 47 % 1019,1 hPa 0,0 l/m 2 min 0 min 758 W/m 15,8 km/h (3 Bft) 95,74 %
10.08.2018 16:30 23,4 C 25,0 C 22,2 C 46 % 1019,0 hPa 0,0 l/m 2 min 0 min 763 W/m 13,5 km/h (3 Bft) 95,74 %
10.08.2018 16:32 23,4 C 25,0 C 22,2 C 47 % 1019,0 hPa 0,0 l/m 2 min 0 min 738 W/m 11,3 km/h (2 Bft) 95,74 %
10.08.2018 16:34 23,4 C 25,6 C 22,2 C 47 % 1019,0 hPa 0,0 l/m 2 min 0 min 751 W/m 11,3 km/h (2 Bft) 95,65 %
10.08.2018 16:36 23,6 C 25,6 C 22,2 C 48 % 1019,0 hPa 0,0 l/m 2 min 0 min 765 W/m 6,8 km/h (2 Bft) 95,74 %
10.08.2018 16:38 23,6 C 25,6 C 22,2 C 48 % 1019,0 hPa 0,0 l/m 2 min 0 min 765 W/m 15,8 km/h (3 Bft) 95,74 %
10.08.2018 16:40 23,6 C 25,0 C 21,7 C 47 % 1019,0 hPa 0,0 l/m 2 min 0 min 737 W/m 15,8 km/h (3 Bft) 95,74 %
10.08.2018 16:42 23,6 C 25,6 C 22,2 C 48 % 1019,0 hPa 0,0 l/m 2 min 0 min 713 W/m 9,0 km/h (2 Bft) 95,74 %
10.08.2018 16:44 23,6 C 24,4 C 21,7 C 47 % 1018,9 hPa 0,0 l/m 2 min 0 min 697 W/m 18,0 km/h (3 Bft) 93,62 %
10.08.2018 16:46 23,6 C 23,3 C 21,7 C 47 % 1018,8 hPa 0,0 l/m 0 min 0 min 188 W/m 9,0 km/h (2 Bft) 95,65 %
10.08.2018 16:48 23,6 C 23,9 C 21,7 C 48 % 1018,8 hPa 0,0 l/m 0 min 0 min 228 W/m 6,8 km/h (2 Bft) 95,74 %
10.08.2018 16:50 23,5 C 24,4 C 21,7 C 48 % 1018,9 hPa 0,0 l/m 2 min 0 min 736 W/m 9,0 km/h (2 Bft) 95,74 %
10.08.2018 16:52 23,5 C 23,9 C 21,7 C 47 % 1018,9 hPa 0,0 l/m 2 min 0 min 684 W/m 15,8 km/h (3 Bft) 95,74 %
10.08.2018 16:54 23,4 C 23,3 C 21,7 C 46 % 1018,9 hPa 0,0 l/m 0 min 0 min 127 W/m 6,8 km/h (2 Bft) 95,74 %
10.08.2018 16:56 23,4 C 23,3 C 21,7 C 47 % 1018,8 hPa 0,0 l/m 0 min 0 min 161 W/m 11,3 km/h (2 Bft) 95,74 %
10.08.2018 16:58 23,4 C 23,3 C 21,7 C 46 % 1018,9 hPa 0,0 l/m 0 min 0 min 236 W/m 11,3 km/h (2 Bft) 95,65 %
10.08.2018 17:00 23,3 C 24,4 C 22,2 C 46 % 1018,8 hPa 0,0 l/m 2 min 0 min 745 W/m 9,0 km/h (2 Bft) 95,74 %
10.08.2018 17:02 23,3 C 24,4 C 22,2 C 45 % 1018,8 hPa 0,0 l/m 2 min 0 min 693 W/m 18,0 km/h (3 Bft) 95,74 %
10.08.2018 17:04 23,3 C 23,9 C 22,2 C 45 % 1018,8 hPa 0,0 l/m 2 min 0 min 663 W/m 11,3 km/h (2 Bft) 95,74 %
10.08.2018 17:06 23,3 C 23,9 C 22,2 C 46 % 1018,7 hPa 0,0 l/m 2 min 0 min 665 W/m 15,8 km/h (3 Bft) 95,74 %
10.08.2018 17:08 23,3 C 23,3 C 22,2 C 45 % 1018,7 hPa 0,0 l/m 0 min 0 min 262 W/m 22,5 km/h (4 Bft) 97,87 %
10.08.2018 17:10 23,3 C 23,3 C 21,7 C 45 % 1018,7 hPa 0,0 l/m 0 min 0 min 147 W/m 15,8 km/h (3 Bft) 97,83 %
10.08.2018 17:12 23,3 C 23,3 C 21,7 C 45 % 1018,7 hPa 0,0 l/m 2 min 0 min 539 W/m 9,0 km/h (2 Bft) 97,87 %
10.08.2018 17:14 23,2 C 23,3 C 21,7 C 45 % 1018,7 hPa 0,0 l/m 2 min 0 min 283 W/m 11,3 km/h (2 Bft) 100,00 %
10.08.2018 17:16 23,2 C 23,9 C 22,2 C 45 % 1018,6 hPa 0,0 l/m 2 min 0 min 674 W/m 9,0 km/h (2 Bft) 100,00 %
10.08.2018 17:18 23,2 C 24,4 C 22,2 C 45 % 1018,6 hPa 0,0 l/m 2 min 0 min 660 W/m 13,5 km/h (3 Bft) 97,87 %
10.08.2018 17:20 23,3 C 24,4 C 22,2 C 45 % 1018,7 hPa 0,0 l/m 2 min 0 min 625 W/m 11,3 km/h (2 Bft) 100,00 %
10.08.2018 17:22 23,3 C 24,4 C 22,2 C 47 % 1018,6 hPa 0,0 l/m 2 min 0 min 583 W/m 6,8 km/h (2 Bft) 100,00 %
10.08.2018 17:24 23,3 C 23,9 C 22,2 C 46 % 1018,7 hPa 0,0 l/m 0 min 0 min 179 W/m 13,5 km/h (3 Bft) 100,00 %
10.08.2018 17:26 23,4 C 23,9 C 22,2 C 46 % 1018,7 hPa 0,0 l/m 2 min 0 min 509 W/m 9,0 km/h (2 Bft) 100,00 %
10.08.2018 17:28 23,4 C 23,3 C 21,7 C 45 % 1018,7 hPa 0,0 l/m 2 min 0 min 601 W/m 9,0 km/h (2 Bft) 97,87 %
10.08.2018 17:30 23,4 C 23,3 C 22,2 C 46 % 1018,7 hPa 0,0 l/m 2 min 0 min 596 W/m 11,3 km/h (2 Bft) 100,00 %
10.08.2018 17:32 23,4 C 23,3 C 22,2 C 46 % 1018,7 hPa 0,0 l/m 2 min 0 min 595 W/m 11,3 km/h (2 Bft) 100,00 %
10.08.2018 17:34 23,4 C 23,3 C 22,2 C 45 % 1018,6 hPa 0,0 l/m 2 min 0 min 591 W/m 11,3 km/h (2 Bft) 100,00 %
10.08.2018 17:36 23,5 C 23,3 C 22,2 C 45 % 1018,6 hPa 0,0 l/m 2 min 0 min 600 W/m 9,0 km/h (2 Bft) 100,00 %
10.08.2018 17:38 23,5 C 23,9 C 22,2 C 45 % 1018,6 hPa 0,0 l/m 2 min 0 min 614 W/m 9,0 km/h (2 Bft) 100,00 %
10.08.2018 17:40 23,6 C 23,9 C 22,8 C 46 % 1018,6 hPa 0,0 l/m 2 min 0 min 608 W/m 13,5 km/h (3 Bft) 100,00 %
10.08.2018 17:42 23,6 C 23,9 C 22,2 C 45 % 1018,7 hPa 0,0 l/m 2 min 0 min 585 W/m 15,8 km/h (3 Bft) 95,74 %
10.08.2018 17:44 23,6 C 23,9 C 22,2 C 45 % 1018,7 hPa 0,0 l/m 2 min 0 min 562 W/m 13,5 km/h (3 Bft) 97,83 %
10.08.2018 17:46 23,7 C 23,9 C 22,2 C 44 % 1018,5 hPa 0,0 l/m 2 min 0 min 558 W/m 13,5 km/h (3 Bft) 95,74 %
10.08.2018 17:48 23,7 C 23,9 C 22,2 C 45 % 1018,5 hPa 0,0 l/m 2 min 0 min 557 W/m 9,0 km/h (2 Bft) 97,87 %
10.08.2018 17:50 23,7 C 23,3 C 22,2 C 45 % 1018,5 hPa 0,0 l/m 2 min 0 min 548 W/m 11,3 km/h (2 Bft) 97,87 %
10.08.2018 17:52 23,7 C 23,3 C 22,2 C 45 % 1018,6 hPa 0,0 l/m 2 min 0 min 545 W/m 9,0 km/h (2 Bft) 95,74 %
10.08.2018 17:54 23,7 C 23,9 C 22,2 C 45 % 1018,6 hPa 0,0 l/m 2 min 0 min 533 W/m 9,0 km/h (2 Bft) 97,87 %
10.08.2018 17:56 23,7 C 23,9 C 22,2 C 46 % 1018,6 hPa 0,0 l/m 2 min 0 min 490 W/m 6,8 km/h (2 Bft) 97,83 %
10.08.2018 17:58 23,7 C 23,9 C 22,2 C 45 % 1018,5 hPa 0,0 l/m 2 min 0 min 508 W/m 6,8 km/h (2 Bft) 97,87 %
10.08.2018 18:00 23,7 C 23,9 C 22,2 C 45 % 1018,5 hPa 0,0 l/m 2 min 0 min 525 W/m 9,0 km/h (2 Bft) 93,62 %
10.08.2018 18:02 23,7 C 23,3 C 22,2 C 45 % 1018,4 hPa 0,0 l/m 2 min 0 min 345 W/m 9,0 km/h (2 Bft) 97,87 %
10.08.2018 18:04 23,7 C 23,3 C 22,2 C 45 % 1018,5 hPa 0,0 l/m 2 min 0 min 348 W/m 13,5 km/h (3 Bft) 97,87 %
10.08.2018 18:06 23,7 C 23,3 C 22,2 C 45 % 1018,5 hPa 0,0 l/m 2 min 0 min 433 W/m 9,0 km/h (2 Bft) 97,87 %
10.08.2018 18:08 23,7 C 23,3 C 22,2 C 45 % 1018,4 hPa 0,0 l/m 0 min 0 min 136 W/m 6,8 km/h (2 Bft) 97,83 %
10.08.2018 18:10 23,7 C 23,3 C 22,2 C 46 % 1018,4 hPa 0,0 l/m 2 min 0 min 471 W/m 9,0 km/h (2 Bft) 97,87 %
10.08.2018 18:12 23,7 C 23,3 C 22,2 C 45 % 1018,4 hPa 0,0 l/m 0 min 0 min 113 W/m 9,0 km/h (2 Bft) 97,87 %
10.08.2018 18:14 23,7 C 22,8 C 21,7 C 45 % 1018,4 hPa 0,0 l/m 0 min 0 min 102 W/m 18,0 km/h (3 Bft) 100,00 %
10.08.2018 18:16 23,7 C 22,2 C 21,7 C 45 % 1018,5 hPa 0,0 l/m 0 min 0 min 139 W/m 13,5 km/h (3 Bft) 97,87 %
10.08.2018 18:18 23,6 C 22,2 C 21,7 C 46 % 1018,4 hPa 0,0 l/m 0 min 0 min 200 W/m 9,0 km/h (2 Bft) 95,74 %
10.08.2018 18:20 23,5 C 22,2 C 21,7 C 45 % 1018,4 hPa 0,0 l/m 0 min 0 min 192 W/m 13,5 km/h (3 Bft) 97,83 %
10.08.2018 18:22 23,4 C 22,2 C 21,7 C 45 % 1018,4 hPa 0,0 l/m 0 min 0 min 186 W/m 9,0 km/h (2 Bft) 97,87 %
10.08.2018 18:24 23,4 C 22,2 C 21,7 C 44 % 1018,4 hPa 0,0 l/m 0 min 0 min 161 W/m 15,8 km/h (3 Bft) 100,00 %
10.08.2018 18:26 23,3 C 22,2 C 21,7 C 43 % 1018,4 hPa 0,0 l/m 0 min 0 min 171 W/m 15,8 km/h (3 Bft) 100,00 %
10.08.2018 18:28 23,2 C 22,2 C 21,7 C 44 % 1018,4 hPa 0,0 l/m 0 min 0 min 176 W/m 11,3 km/h (2 Bft) 100,00 %
10.08.2018 18:30 23,2 C 22,8 C 21,7 C 44 % 1018,4 hPa 0,0 l/m 0 min 0 min 187 W/m 11,3 km/h (2 Bft) 97,87 %
10.08.2018 18:32 23,1 C 22,8 C 21,7 C 44 % 1018,4 hPa 0,0 l/m 2 min 0 min 214 W/m 13,5 km/h (3 Bft) 100,00 %
10.08.2018 18:34 23,1 C 22,8 C 21,7 C 44 % 1018,3 hPa 0,0 l/m 2 min 0 min 252 W/m 11,3 km/h (2 Bft) 100,00 %
10.08.2018 18:36 23,1 C 22,8 C 21,7 C 44 % 1018,3 hPa 0,0 l/m 2 min 0 min 447 W/m 9,0 km/h (2 Bft) 100,00 %
10.08.2018 18:38 23,1 C 22,8 C 21,7 C 44 % 1018,3 hPa 0,0 l/m 2 min 0 min 466 W/m 11,3 km/h (2 Bft) 97,87 %
10.08.2018 18:40 23,1 C 23,3 C 22,2 C 44 % 1018,3 hPa 0,0 l/m 2 min 0 min 432 W/m 11,3 km/h (2 Bft) 100,00 %
10.08.2018 18:42 23,1 C 23,3 C 22,2 C 45 % 1018,2 hPa 0,0 l/m 2 min 0 min 419 W/m 11,3 km/h (2 Bft) 100,00 %
10.08.2018 18:44 23,1 C 23,3 C 22,2 C 45 % 1018,2 hPa 0,0 l/m 2 min 0 min 426 W/m 11,3 km/h (2 Bft) 100,00 %
10.08.2018 18:46 23,2 C 23,3 C 22,2 C 45 % 1018,2 hPa 0,0 l/m 2 min 0 min 414 W/m 9,0 km/h (2 Bft) 100,00 %
10.08.2018 18:48 23,2 C 23,3 C 21,7 C 46 % 1018,1 hPa 0,0 l/m 2 min 0 min 402 W/m 6,8 km/h (2 Bft) 100,00 %
10.08.2018 18:50 23,2 C 23,3 C 22,2 C 46 % 1018,2 hPa 0,0 l/m 2 min 0 min 373 W/m 6,8 km/h (2 Bft) 100,00 %
10.08.2018 18:52 23,2 C 23,3 C 21,7 C 46 % 1018,2 hPa 0,0 l/m 2 min 0 min 248 W/m 11,3 km/h (2 Bft) 100,00 %
10.08.2018 18:54 23,2 C 23,3 C 21,7 C 46 % 1018,2 hPa 0,0 l/m 0 min 0 min 120 W/m 15,8 km/h (3 Bft) 100,00 %
10.08.2018 18:56 23,2 C 22,8 C 21,7 C 46 % 1018,2 hPa 0,0 l/m 0 min 0 min 95 W/m 9,0 km/h (2 Bft) 97,87 %
10.08.2018 18:58 23,3 C 23,3 C 21,7 C 47 % 1018,2 hPa 0,0 l/m 0 min 0 min 92 W/m 11,3 km/h (2 Bft) 100,00 %
10.08.2018 19:00 23,3 C 22,8 C 21,7 C 47 % 1018,2 hPa 0,0 l/m 0 min 0 min 115 W/m 11,3 km/h (2 Bft) 100,00 %
10.08.2018 19:02 23,3 C 22,8 C 21,7 C 47 % 1018,2 hPa 0,0 l/m 0 min 0 min 106 W/m 6,8 km/h (2 Bft) 97,87 %
10.08.2018 19:04 23,3 C 22,8 C 21,7 C 47 % 1018,2 hPa 0,0 l/m 0 min 0 min 98 W/m 6,8 km/h (2 Bft) 97,87 %
10.08.2018 19:06 23,3 C 23,3 C 21,7 C 48 % 1018,2 hPa 0,0 l/m 0 min 0 min 95 W/m 4,5 km/h (1 Bft) 100,00 %
10.08.2018 19:08 23,3 C 22,8 C 21,7 C 47 % 1018,2 hPa 0,0 l/m 0 min 0 min 90 W/m 9,0 km/h (2 Bft) 97,87 %
10.08.2018 19:10 23,2 C 22,8 C 21,7 C 47 % 1018,3 hPa 0,0 l/m 0 min 0 min 80 W/m 11,3 km/h (2 Bft) 97,87 %
10.08.2018 19:12 23,2 C 22,2 C 21,7 C 46 % 1018,3 hPa 0,0 l/m 0 min 0 min 83 W/m 15,8 km/h (3 Bft) 97,87 %
10.08.2018 19:14 23,2 C 22,2 C 21,7 C 46 % 1018,3 hPa 0,0 l/m 0 min 0 min 91 W/m 11,3 km/h (2 Bft) 97,87 %
10.08.2018 19:16 23,1 C 22,2 C 21,7 C 46 % 1018,3 hPa 0,0 l/m 0 min 0 min 94 W/m 11,3 km/h (2 Bft) 97,87 %
10.08.2018 19:18 23,1 C 22,2 C 21,7 C 46 % 1018,2 hPa 0,0 l/m 0 min 0 min 92 W/m 11,3 km/h (2 Bft) 100,00 %
10.08.2018 19:20 23,0 C 22,2 C 21,7 C 46 % 1018,3 hPa 0,0 l/m 0 min 0 min 95 W/m 15,8 km/h (3 Bft) 95,74 %
10.08.2018 19:22 23,0 C 22,2 C 21,7 C 46 % 1018,2 hPa 0,0 l/m 0 min 0 min 96 W/m 11,3 km/h (2 Bft) 97,87 %
10.08.2018 19:24 23,0 C 22,2 C 21,7 C 46 % 1018,2 hPa 0,0 l/m 0 min 0 min 97 W/m 11,3 km/h (2 Bft) 95,74 %
10.08.2018 19:26 22,9 C 22,2 C 21,7 C 46 % 1018,2 hPa 0,0 l/m 0 min 0 min 97 W/m 15,8 km/h (3 Bft) 97,87 %
10.08.2018 19:28 22,9 C 22,2 C 21,7 C 46 % 1018,1 hPa 0,0 l/m 0 min 0 min 103 W/m 9,0 km/h (2 Bft) 97,87 %
10.08.2018 19:30 22,9 C 22,2 C 21,7 C 47 % 1018,0 hPa 0,0 l/m 0 min 0 min 105 W/m 13,5 km/h (3 Bft) 95,65 %
10.08.2018 19:32 22,9 C 22,2 C 21,7 C 46 % 1018,0 hPa 0,0 l/m 0 min 0 min 102 W/m 9,0 km/h (2 Bft) 93,62 %
10.08.2018 19:34 22,9 C 22,2 C 21,7 C 46 % 1018,0 hPa 0,0 l/m 0 min 0 min 100 W/m 15,8 km/h (3 Bft) 93,62 %
10.08.2018 19:36 22,8 C 22,2 C 21,1 C 47 % 1018,0 hPa 0,0 l/m 0 min 0 min 93 W/m 9,0 km/h (2 Bft) 95,74 %
10.08.2018 19:38 22,8 C 21,7 C 21,1 C 47 % 1018,0 hPa 0,0 l/m 0 min 0 min 87 W/m 6,8 km/h (2 Bft) 95,74 %
10.08.2018 19:40 22,7 C 21,7 C 21,1 C 47 % 1018,0 hPa 0,0 l/m 0 min 0 min 78 W/m 6,8 km/h (2 Bft) 97,87 %
10.08.2018 19:42 22,7 C 21,7 C 21,1 C 48 % 1017,9 hPa 0,0 l/m 0 min 0 min 72 W/m 6,8 km/h (2 Bft) 95,65 %
10.08.2018 19:44 22,7 C 21,7 C 21,1 C 48 % 1017,9 hPa 0,0 l/m 0 min 0 min 67 W/m 6,8 km/h (2 Bft) 95,74 %
10.08.2018 19:46 22,6 C 21,1 C 21,1 C 48 % 1017,9 hPa 0,0 l/m 0 min 0 min 63 W/m 9,0 km/h (2 Bft) 95,74 %
10.08.2018 19:48 22,6 C 21,1 C 20,6 C 49 % 1018,0 hPa 0,0 l/m 0 min 0 min 61 W/m 9,0 km/h (2 Bft) 95,74 %
10.08.2018 19:50 22,6 C 21,1 C 20,6 C 48 % 1018,0 hPa 0,0 l/m 0 min 0 min 60 W/m 11,3 km/h (2 Bft) 95,74 %
10.08.2018 19:52 22,5 C 21,1 C 20,6 C 48 % 1018,0 hPa 0,0 l/m 0 min 0 min 62 W/m 11,3 km/h (2 Bft) 93,62 %
10.08.2018 19:54 22,4 C 21,1 C 20,6 C 48 % 1017,8 hPa 0,0 l/m 0 min 0 min 62 W/m 18,0 km/h (3 Bft) 95,65 %
10.08.2018 19:56 22,4 C 21,1 C 20,6 C 48 % 1018,1 hPa 0,0 l/m 0 min 0 min 62 W/m 13,5 km/h (3 Bft) 95,74 %
10.08.2018 19:58 22,3 C 21,1 C 20,6 C 48 % 1018,0 hPa 0,0 l/m 0 min 0 min 61 W/m 11,3 km/h (2 Bft) 95,74 %
10.08.2018 20:00 22,3 C 21,1 C 20,6 C 48 % 1017,9 hPa 0,0 l/m 0 min 0 min 61 W/m 6,8 km/h (2 Bft) 95,74 %
10.08.2018 20:02 22,2 C 21,1 C 20,6 C 48 % 1018,0 hPa 0,0 l/m 0 min 0 min 62 W/m 15,8 km/h (3 Bft) 93,62 %
10.08.2018 20:04 22,2 C 21,1 C 21,1 C 49 % 1017,9 hPa 0,0 l/m 0 min 0 min 62 W/m 13,5 km/h (3 Bft) 95,74 %
10.08.2018 20:06 22,2 C 21,1 C 21,1 C 49 % 1017,9 hPa 0,0 l/m 0 min 0 min 62 W/m 11,3 km/h (2 Bft) 93,48 %
10.08.2018 20:08 22,2 C 21,1 C 21,1 C 49 % 1018,0 hPa 0,0 l/m 0 min 0 min 62 W/m 6,8 km/h (2 Bft) 95,74 %
10.08.2018 20:10 22,2 C 21,1 C 21,1 C 49 % 1018,0 hPa 0,0 l/m 0 min 0 min 61 W/m 9,0 km/h (2 Bft) 95,74 %
10.08.2018 20:12 22,1 C 21,1 C 21,1 C 49 % 1018,0 hPa 0,0 l/m 0 min 0 min 58 W/m 9,0 km/h (2 Bft) 91,49 %
10.08.2018 20:14 22,1 C 21,1 C 21,1 C 49 % 1018,0 hPa 0,0 l/m 2 min 0 min 57 W/m 6,8 km/h (2 Bft) 94,00 %
10.08.2018 20:16 22,1 C 21,1 C 21,1 C 49 % 1017,9 hPa 0,0 l/m 0 min 0 min 54 W/m 13,5 km/h (3 Bft) 93,48 %
10.08.2018 20:18 22,1 C 21,1 C 20,6 C 49 % 1017,8 hPa 0,0 l/m 0 min 0 min 50 W/m 9,0 km/h (2 Bft) 93,62 %
10.08.2018 20:20 22,1 C 21,1 C 20,6 C 49 % 1018,0 hPa 0,0 l/m 0 min 0 min 47 W/m 9,0 km/h (2 Bft) 93,62 %
10.08.2018 20:22 22,0 C 21,1 C 20,6 C 49 % 1018,0 hPa 0,0 l/m 0 min 0 min 46 W/m 6,8 km/h (2 Bft) 95,74 %
10.08.2018 20:24 22,0 C 21,1 C 20,6 C 50 % 1018,0 hPa 0,0 l/m 2 min 0 min 44 W/m 6,8 km/h (2 Bft) 95,74 %
10.08.2018 20:26 21,9 C 21,1 C 20,6 C 49 % 1018,0 hPa 0,0 l/m 2 min 0 min 45 W/m 6,8 km/h (2 Bft) 97,87 %
10.08.2018 20:28 21,9 C 21,1 C 20,6 C 50 % 1017,9 hPa 0,0 l/m 2 min 0 min 43 W/m 18,0 km/h (3 Bft) 97,83 %
10.08.2018 20:30 21,9 C 21,1 C 20,6 C 50 % 1017,9 hPa 0,0 l/m 2 min 0 min 42 W/m 13,5 km/h (3 Bft) 97,87 %
10.08.2018 20:32 21,9 C 21,1 C 20,6 C 50 % 1017,9 hPa 0,0 l/m 2 min 0 min 40 W/m 9,0 km/h (2 Bft) 95,74 %
10.08.2018 20:34 21,8 C 21,1 C 20,6 C 50 % 1017,8 hPa 0,0 l/m 2 min 0 min 37 W/m 6,8 km/h (2 Bft) 95,74 %
10.08.2018 20:36 21,8 C 20,6 C 20,6 C 50 % 1017,9 hPa 0,0 l/m 2 min 0 min 32 W/m 6,8 km/h (2 Bft) 95,74 %
10.08.2018 20:38 21,8 C 20,6 C 20,6 C 50 % 1017,8 hPa 0,0 l/m 2 min 0 min 28 W/m 6,8 km/h (2 Bft) 97,87 %
10.08.2018 20:40 21,7 C 20,6 C 20,6 C 50 % 1017,8 hPa 0,0 l/m 0 min 0 min 24 W/m 6,8 km/h (2 Bft) 97,83 %
10.08.2018 20:42 21,7 C 20,6 C 20,6 C 50 % 1017,8 hPa 0,0 l/m 0 min 0 min 21 W/m 9,0 km/h (2 Bft) 95,74 %
10.08.2018 20:44 21,7 C 20,6 C 20,6 C 50 % 1017,8 hPa 0,0 l/m 0 min 0 min 18 W/m 6,8 km/h (2 Bft) 95,74 %
10.08.2018 20:46 21,7 C 20,6 C 20,6 C 50 % 1017,8 hPa 0,0 l/m 0 min 0 min 16 W/m 4,5 km/h (1 Bft) 97,87 %
10.08.2018 20:48 21,6 C 20,6 C 20,0 C 50 % 1017,8 hPa 0,0 l/m 0 min 0 min 15 W/m 9,0 km/h (2 Bft) 97,87 %
10.08.2018 20:50 21,6 C 20,6 C 20,0 C 50 % 1017,8 hPa 0,0 l/m 0 min 0 min 14 W/m 6,8 km/h (2 Bft) 97,87 %
10.08.2018 20:52 21,6 C 20,6 C 20,0 C 50 % 1017,8 hPa 0,0 l/m 0 min 0 min 12 W/m 6,8 km/h (2 Bft) 95,65 %
10.08.2018 20:54 21,6 C 20,6 C 20,0 C 51 % 1017,8 hPa 0,0 l/m 0 min 0 min 12 W/m 6,8 km/h (2 Bft) 95,74 %
10.08.2018 20:56 21,5 C 20,0 C 20,0 C 51 % 1017,7 hPa 0,0 l/m 0 min 0 min 11 W/m 4,5 km/h (1 Bft) 100,00 %
10.08.2018 20:58 21,5 C 20,0 C 20,0 C 50 % 1017,7 hPa 0,0 l/m 0 min 0 min 10 W/m 6,8 km/h (2 Bft) 100,00 %
10.08.2018 21:00 21,4 C 20,0 C 20,0 C 50 % 1017,7 hPa 0,0 l/m 0 min 0 min 9 W/m 4,5 km/h (1 Bft) 100,00 %
10.08.2018 21:02 21,4 C 20,0 C 20,0 C 50 % 1017,8 hPa 0,0 l/m 0 min 0 min 9 W/m 11,3 km/h (2 Bft) 97,87 %
10.08.2018 21:04 21,4 C 20,0 C 20,0 C 50 % 1017,7 hPa 0,0 l/m 0 min 0 min 7 W/m 9,0 km/h (2 Bft) 100,00 %
10.08.2018 21:06 21,3 C 20,0 C 20,0 C 50 % 1017,7 hPa 0,0 l/m 0 min 0 min 5 W/m 9,0 km/h (2 Bft) 100,00 %
10.08.2018 21:08 21,3 C 20,0 C 20,0 C 51 % 1017,7 hPa 0,0 l/m 0 min 0 min 1 W/m 4,5 km/h (1 Bft) 100,00 %
10.08.2018 21:10 21,3 C 20,0 C 20,0 C 51 % 1017,7 hPa 0,0 l/m 0 min 0 min 0 W/m 6,8 km/h (2 Bft) 97,87 %
10.08.2018 21:12 21,2 C 20,0 C 20,0 C 51 % 1017,9 hPa 0,0 l/m 0 min 0 min 0 W/m 9,0 km/h (2 Bft) 100,00 %
10.08.2018 21:14 21,2 C 20,0 C 20,0 C 51 % 1017,8 hPa 0,0 l/m 0 min 0 min 0 W/m 6,8 km/h (2 Bft) 100,00 %
10.08.2018 21:16 21,2 C 20,0 C 20,0 C 51 % 1017,8 hPa 0,0 l/m 0 min 0 min 0 W/m 11,3 km/h (2 Bft) 100,00 %
10.08.2018 21:18 21,1 C 20,0 C 20,0 C 51 % 1017,8 hPa 0,0 l/m 0 min 0 min 0 W/m 6,8 km/h (2 Bft) 100,00 %
10.08.2018 21:20 21,1 C 20,0 C 20,0 C 51 % 1017,8 hPa 0,0 l/m 0 min 0 min 0 W/m 9,0 km/h (2 Bft) 97,87 %
10.08.2018 21:22 21,1 C 20,0 C 20,0 C 51 % 1017,8 hPa 0,0 l/m 0 min 0 min 0 W/m 6,8 km/h (2 Bft) 100,00 %
10.08.2018 21:24 21,0 C 20,0 C 20,0 C 51 % 1017,8 hPa 0,0 l/m 0 min 0 min 0 W/m 4,5 km/h (1 Bft) 100,00 %
10.08.2018 21:26 21,0 C 20,0 C 20,0 C 51 % 1017,9 hPa 0,0 l/m 0 min 0 min 0 W/m 6,8 km/h (2 Bft) 100,00 %
10.08.2018 21:28 21,0 C 20,0 C 19,4 C 51 % 1017,9 hPa 0,0 l/m 0 min 0 min 0 W/m 4,5 km/h (1 Bft) 100,00 %
10.08.2018 21:30 20,9 C 20,0 C 19,4 C 51 % 1017,9 hPa 0,0 l/m 0 min 0 min 0 W/m 6,8 km/h (2 Bft) 100,00 %
10.08.2018 21:32 20,9 C 20,0 C 19,4 C 51 % 1017,9 hPa 0,0 l/m 0 min 0 min 0 W/m 2,3 km/h (1 Bft) 97,87 %
10.08.2018 21:34 20,9 C 19,4 C 19,4 C 51 % 1017,9 hPa 0,0 l/m 0 min 0 min 0 W/m 4,5 km/h (1 Bft) 100,00 %
10.08.2018 21:36 20,9 C 19,4 C 19,4 C 51 % 1017,9 hPa 0,0 l/m 0 min 0 min 0 W/m 6,8 km/h (2 Bft) 100,00 %
10.08.2018 21:38 20,9 C 19,4 C 19,4 C 51 % 1017,9 hPa 0,0 l/m 0 min 0 min 0 W/m 6,8 km/h (2 Bft) 100,00 %
10.08.2018 21:40 20,8 C 19,4 C 19,4 C 51 % 1018,0 hPa 0,0 l/m 0 min 0 min 0 W/m 6,8 km/h (2 Bft) 100,00 %
10.08.2018 21:42 20,8 C 19,4 C 19,4 C 51 % 1018,0 hPa 0,0 l/m 0 min 0 min 0 W/m 11,3 km/h (2 Bft) 100,00 %
10.08.2018 21:44 20,8 C 19,4 C 19,4 C 52 % 1018,0 hPa 0,0 l/m 0 min 0 min 0 W/m 6,8 km/h (2 Bft) 100,00 %
10.08.2018 21:46 20,7 C 19,4 C 19,4 C 52 % 1018,0 hPa 0,0 l/m 0 min 0 min 0 W/m 9,0 km/h (2 Bft) 100,00 %
10.08.2018 21:48 20,7 C 19,4 C 19,4 C 52 % 1018,0 hPa 0,0 l/m 0 min 0 min 0 W/m 6,8 km/h (2 Bft) 100,00 %
10.08.2018 21:50 20,7 C 19,4 C 19,4 C 52 % 1018,0 hPa 0,0 l/m 0 min 0 min 0 W/m 4,5 km/h (1 Bft) 97,83 %
10.08.2018 21:52 20,6 C 19,4 C 19,4 C 52 % 1018,0 hPa 0,0 l/m 0 min 0 min 0 W/m 6,8 km/h (2 Bft) 100,00 %
10.08.2018 21:54 20,6 C 19,4 C 19,4 C 52 % 1018,0 hPa 0,0 l/m 0 min 0 min 0 W/m 6,8 km/h (2 Bft) 100,00 %
10.08.2018 21:56 20,6 C 19,4 C 19,4 C 52 % 1018,0 hPa 0,0 l/m 0 min 0 min 0 W/m 6,8 km/h (2 Bft) 100,00 %
10.08.2018 21:58 20,6 C 19,4 C 18,9 C 52 % 1018,0 hPa 0,0 l/m 0 min 0 min 0 W/m 6,8 km/h (2 Bft) 100,00 %
10.08.2018 22:00 20,5 C 19,4 C 19,4 C 52 % 1018,0 hPa 0,0 l/m 0 min 0 min 0 W/m 9,0 km/h (2 Bft) 100,00 %
10.08.2018 22:02 20,4 C 19,4 C 18,9 C 52 % 1018,0 hPa 0,0 l/m 0 min 0 min 0 W/m 4,5 km/h (1 Bft) 100,00 %
10.08.2018 22:04 20,4 C 19,4 C 18,9 C 53 % 1018,0 hPa 0,0 l/m 0 min 0 min 0 W/m 4,5 km/h (1 Bft) 100,00 %
10.08.2018 22:06 20,4 C 18,9 C 18,9 C 53 % 1017,9 hPa 0,0 l/m 0 min 0 min 0 W/m 4,5 km/h (1 Bft) 100,00 %
10.08.2018 22:08 20,4 C 18,9 C 18,9 C 53 % 1017,9 hPa 0,0 l/m 0 min 0 min 0 W/m 6,8 km/h (2 Bft) 100,00 %
10.08.2018 22:10 20,4 C 18,9 C 18,9 C 53 % 1017,9 hPa 0,0 l/m 0 min 0 min 0 W/m 4,5 km/h (1 Bft) 100,00 %
10.08.2018 22:12 20,3 C 18,9 C 18,9 C 53 % 1017,9 hPa 0,0 l/m 0 min 0 min 0 W/m 4,5 km/h (1 Bft) 97,87 %
10.08.2018 22:14 20,3 C 18,9 C 18,9 C 53 % 1017,8 hPa 0,0 l/m 0 min 0 min 0 W/m 4,5 km/h (1 Bft) 100,00 %
10.08.2018 22:16 20,3 C 18,9 C 18,3 C 53 % 1017,8 hPa 0,0 l/m 0 min 0 min 0 W/m 4,5 km/h (1 Bft) 95,74 %
10.08.2018 22:18 20,2 C 18,9 C 18,3 C 53 % 1017,7 hPa 0,0 l/m 0 min 0 min 0 W/m 6,8 km/h (2 Bft) 100,00 %
10.08.2018 22:20 20,2 C 18,3 C 18,3 C 53 % 1017,7 hPa 0,0 l/m 0 min 0 min 0 W/m 4,5 km/h (1 Bft) 100,00 %
10.08.2018 22:22 20,2 C 18,3 C 18,3 C 53 % 1017,7 hPa 0,0 l/m 0 min 0 min 0 W/m 4,5 km/h (1 Bft) 95,74 %
10.08.2018 22:24 20,1 C 18,3 C 18,3 C 54 % 1017,7 hPa 0,0 l/m 0 min 0 min 0 W/m 6,8 km/h (2 Bft) 97,87 %
10.08.2018 22:26 20,1 C 18,3 C 18,3 C 54 % 1017,7 hPa 0,0 l/m 0 min 0 min 0 W/m 4,5 km/h (1 Bft) 95,65 %
10.08.2018 22:28 20,0 C 18,3 C 18,3 C 54 % 1017,7 hPa 0,0 l/m 0 min 0 min 0 W/m 4,5 km/h (1 Bft) 100,00 %
10.08.2018 22:30 19,9 C 18,3 C 18,3 C 54 % 1017,7 hPa 0,0 l/m 0 min 0 min 0 W/m 6,8 km/h (2 Bft) 97,87 %
10.08.2018 22:32 19,9 C 18,3 C 18,3 C 54 % 1017,6 hPa 0,0 l/m 0 min 0 min 0 W/m 4,5 km/h (1 Bft) 97,87 %
10.08.2018 22:34 19,8 C 18,3 C 18,3 C 54 % 1017,6 hPa 0,0 l/m 0 min 0 min 0 W/m 4,5 km/h (1 Bft) 97,87 %
10.08.2018 22:36 19,8 C 18,3 C 18,3 C 54 % 1017,6 hPa 0,0 l/m 0 min 0 min 0 W/m 6,8 km/h (2 Bft) 97,14 %
10.08.2018 22:38 19,8 C 18,3 C 18,3 C 54 % 1017,6 hPa 0,0 l/m 0 min 0 min 0 W/m 4,5 km/h (1 Bft) 97,87 %
10.08.2018 22:40 19,7 C 18,3 C 18,3 C 54 % 1017,7 hPa 0,0 l/m 0 min 0 min 0 W/m 6,8 km/h (2 Bft) 97,83 %
10.08.2018 22:42 19,7 C 18,3 C 18,3 C 54 % 1017,7 hPa 0,0 l/m 0 min 0 min 0 W/m 4,5 km/h (1 Bft) 95,74 %
10.08.2018 22:44 19,7 C 18,3 C 18,3 C 54 % 1017,6 hPa 0,0 l/m 0 min 0 min 0 W/m 2,3 km/h (1 Bft) 97,87 %
10.08.2018 22:46 19,6 C 18,3 C 18,3 C 54 % 1017,6 hPa 0,0 l/m 0 min 0 min 0 W/m 6,8 km/h (2 Bft) 97,87 %
10.08.2018 22:48 19,6 C 18,3 C 18,3 C 54 % 1017,6 hPa 0,0 l/m 0 min 0 min 0 W/m 9,0 km/h (2 Bft) 95,74 %
10.08.2018 22:50 19,6 C 18,3 C 18,3 C 55 % 1017,6 hPa 0,0 l/m 0 min 0 min 0 W/m 4,5 km/h (1 Bft) 96,55 %
10.08.2018 22:52 19,5 C 18,3 C 18,3 C 54 % 1017,6 hPa 0,0 l/m 0 min 0 min 0 W/m 4,5 km/h (1 Bft) 95,74 %
10.08.2018 22:54 19,5 C 18,3 C 18,3 C 55 % 1017,6 hPa 0,0 l/m 0 min 0 min 0 W/m 4,5 km/h (1 Bft) 97,14 %
10.08.2018 22:56 19,4 C 18,3 C 18,3 C 55 % 1017,6 hPa 0,0 l/m 0 min 0 min 0 W/m 4,5 km/h (1 Bft) 95,74 %
10.08.2018 22:58 19,4 C 18,3 C 18,3 C 55 % 1017,6 hPa 0,0 l/m 0 min 0 min 0 W/m 9,0 km/h (2 Bft) 91,49 %
10.08.2018 23:00 19,4 C 18,3 C 18,3 C 55 % 1017,6 hPa 0,0 l/m 0 min 0 min 0 W/m 6,8 km/h (2 Bft) 93,62 %
10.08.2018 23:02 19,3 C 18,3 C 18,3 C 55 % 1017,6 hPa 0,0 l/m 0 min 0 min 0 W/m 6,8 km/h (2 Bft) 93,62 %
10.08.2018 23:04 19,3 C 18,3 C 18,3 C 55 % 1017,6 hPa 0,0 l/m 0 min 0 min 0 W/m 6,8 km/h (2 Bft) 95,65 %
10.08.2018 23:06 19,3 C 18,3 C 18,3 C 55 % 1017,6 hPa 0,0 l/m 0 min 0 min 0 W/m 4,5 km/h (1 Bft) 94,44 %
10.08.2018 23:08 19,2 C 18,3 C 18,3 C 55 % 1017,6 hPa 0,0 l/m 0 min 0 min 0 W/m 6,8 km/h (2 Bft) 95,74 %
10.08.2018 23:10 19,2 C 18,3 C 18,3 C 55 % 1017,6 hPa 0,0 l/m 0 min 0 min 0 W/m 6,8 km/h (2 Bft) 93,48 %
10.08.2018 23:12 19,2 C 18,3 C 18,3 C 55 % 1017,7 hPa 0,0 l/m 0 min 0 min 0 W/m 6,8 km/h (2 Bft) 93,62 %
10.08.2018 23:14 19,2 C 18,3 C 18,3 C 55 % 1017,7 hPa 0,0 l/m 0 min 0 min 0 W/m 6,8 km/h (2 Bft) 91,49 %
10.08.2018 23:16 19,1 C 18,3 C 17,8 C 55 % 1017,7 hPa 0,0 l/m 0 min 0 min 0 W/m 9,0 km/h (2 Bft) 95,74 %
10.08.2018 23:18 19,1 C 18,3 C 17,8 C 56 % 1017,6 hPa 0,0 l/m 0 min 0 min 0 W/m 4,5 km/h (1 Bft) 93,62 %
10.08.2018 23:20 19,1 C 18,3 C 17,8 C 56 % 1017,6 hPa 0,0 l/m 0 min 0 min 0 W/m 6,8 km/h (2 Bft) 93,48 %
10.08.2018 23:22 19,1 C 18,3 C 17,8 C 55 % 1017,6 hPa 0,0 l/m 0 min 0 min 0 W/m 6,8 km/h (2 Bft) 95,74 %
10.08.2018 23:24 19,0 C 18,3 C 17,8 C 56 % 1017,6 hPa 0,0 l/m 0 min 0 min 0 W/m 4,5 km/h (1 Bft) 91,49 %
10.08.2018 23:26 19,0 C 18,3 C 17,8 C 56 % 1017,6 hPa 0,0 l/m 0 min 0 min 0 W/m 9,0 km/h (2 Bft) 93,62 %
10.08.2018 23:28 19,0 C 18,3 C 17,8 C 56 % 1017,5 hPa 0,0 l/m 0 min 0 min 0 W/m 6,8 km/h (2 Bft) 95,74 %
10.08.2018 23:30 19,0 C 18,3 C 17,8 C 56 % 1017,6 hPa 0,0 l/m 0 min 0 min 0 W/m 6,8 km/h (2 Bft) 93,62 %
10.08.2018 23:32 18,9 C 18,3 C 18,3 C 56 % 1017,7 hPa 0,0 l/m 0 min 0 min 0 W/m 6,8 km/h (2 Bft) 95,65 %
10.08.2018 23:34 18,9 C 18,3 C 18,3 C 56 % 1017,6 hPa 0,0 l/m 0 min 0 min 0 W/m 9,0 km/h (2 Bft) 97,87 %
10.08.2018 23:36 18,9 C 18,3 C 18,3 C 57 % 1017,6 hPa 0,0 l/m 0 min 0 min 0 W/m 6,8 km/h (2 Bft) 95,83 %
10.08.2018 23:38 18,9 C 18,3 C 17,8 C 57 % 1017,6 hPa 0,0 l/m 0 min 0 min 0 W/m 4,5 km/h (1 Bft) 95,74 %
10.08.2018 23:40 18,9 C 18,3 C 18,3 C 57 % 1017,6 hPa 0,0 l/m 0 min 0 min 0 W/m 4,5 km/h (1 Bft) 97,87 %
10.08.2018 23:42 18,9 C 18,3 C 17,8 C 57 % 1017,6 hPa 0,0 l/m 0 min 0 min 0 W/m 4,5 km/h (1 Bft) 95,74 %
10.08.2018 23:44 18,9 C 18,3 C 17,8 C 57 % 1017,6 hPa 0,0 l/m 0 min 0 min 0 W/m 6,8 km/h (2 Bft) 95,65 %
10.08.2018 23:46 18,9 C 18,3 C 17,8 C 57 % 1017,5 hPa 0,0 l/m 0 min 0 min 0 W/m 4,5 km/h (1 Bft) 97,87 %
10.08.2018 23:48 18,9 C 18,3 C 17,8 C 57 % 1017,6 hPa 0,0 l/m 0 min 0 min 0 W/m 6,8 km/h (2 Bft) 97,87 %
10.08.2018 23:50 18,9 C 18,3 C 17,8 C 57 % 1017,6 hPa 0,0 l/m 0 min 0 min 0 W/m 9,0 km/h (2 Bft) 97,87 %
10.08.2018 23:52 18,9 C 17,8 C 17,8 C 57 % 1017,6 hPa 0,0 l/m 0 min 0 min 0 W/m 6,8 km/h (2 Bft) 93,75 %
10.08.2018 23:54 18,9 C 17,8 C 17,8 C 57 % 1017,6 hPa 0,0 l/m 0 min 0 min 0 W/m 4,5 km/h (1 Bft) 97,87 %
10.08.2018 23:56 18,8 C 17,8 C 17,8 C 57 % 1017,6 hPa 0,0 l/m 0 min 0 min 0 W/m 9,0 km/h (2 Bft) 97,83 %
10.08.2018 23:58 18,8 C 17,8 C 17,8 C 58 % 1017,6 hPa 0,0 l/m 0 min 0 min 0 W/m 4,5 km/h (1 Bft) 97,87 %
_ Min-Zeit 06:10 04:46 05:50 18:26 00:04 - - - - 04:58 05:47
Minimum _ 13,9 C 13,3 C 13,3 C 43 % 1012,3 hPa - - - - 0,0 km/h (0 Bft) 89,47 %
_ Max-Zeit 16:00 12:40 15:52 06:14 12:16 00:00 12:08 00:08 13:52 13:12 01:12
Maximum _ 23,7 C 30,0 C 22,8 C 91 % 1020,2 hPa 0,0 l/m 4 min 4 min 1044 W/m 22,5 km/h
O-SO (4 Bft)
100,00 %
Durchschnitt _ 19,1 C 19,2 C 18,0 C 67 % 1018,1 hPa #0,0 l/m #6:50 h #56 min. 349 W/m 9,1 km/h (2 Bft) 97,40 %
© 2018 W. Hausmann